Wetterdaten: Samstag, 05.11.2016
Datum Zeit Temp. A. Feuchte A. Luftdruck Regen Wind Richtung Richtung Sonnenschein ET UV Solar Taupunkt Windchill Windben Empfang
05.11.2016 00:00 1,3 C 98 % 1013,8 hPa 0,0 l/m 3,6 km/h (1 Bft) NO 43 0 min 0,000 mm 0,0 UV-I 0 W/m 1,0 C 1,3 C 4,8 km/h (1 Bft) 100,00 %
05.11.2016 00:04 1,2 C 98 % 1013,7 hPa 0,0 l/m 3,2 km/h (1 Bft) O-NO 69 0 min 0,000 mm 0,0 UV-I 0 W/m 0,9 C 1,2 C 4,8 km/h (1 Bft) 95,65 %
05.11.2016 00:06 1,2 C 98 % 1013,7 hPa 0,0 l/m 2,2 km/h (1 Bft) O-NO 64 0 min 0,000 mm 0,0 UV-I 0 W/m 0,9 C 1,2 C 8,0 km/h (2 Bft) 100,00 %
05.11.2016 00:08 1,2 C 98 % 1013,7 hPa 0,0 l/m 4,0 km/h (1 Bft) O-NO 74 0 min 0,000 mm 0,0 UV-I 0 W/m 0,9 C 1,2 C 8,0 km/h (2 Bft) 100,00 %
05.11.2016 00:10 1,2 C 98 % 1013,7 hPa 0,0 l/m 3,2 km/h (1 Bft) O-NO 67 0 min 0,000 mm 0,0 UV-I 0 W/m 0,9 C 1,2 C 8,0 km/h (2 Bft) 100,00 %
05.11.2016 00:15 1,2 C 98 % 1013,5 hPa 0,0 l/m 4,8 km/h (1 Bft) O-SO 112 0 min 0,000 mm 0,0 UV-I 0 W/m 0,9 C 1,2 C 11,3 km/h (2 Bft) 99,12 %
05.11.2016 00:20 1,2 C 98 % 1013,5 hPa 0,0 l/m 4,2 km/h (1 Bft) SO 126 0 min 0,000 mm 0,0 UV-I 0 W/m 0,9 C 1,2 C 6,4 km/h (2 Bft) 99,64 %
05.11.2016 00:22 1,2 C 98 % 1013,4 hPa 0,0 l/m 3,6 km/h (1 Bft) O-SO 109 0 min 0,000 mm 0,0 UV-I 0 W/m 0,9 C 1,2 C 4,8 km/h (1 Bft) 97,87 %
05.11.2016 00:24 1,2 C 98 % 1013,4 hPa 0,0 l/m 5,6 km/h (1 Bft) O 86 0 min 0,000 mm 0,0 UV-I 0 W/m 0,9 C 1,2 C 9,7 km/h (2 Bft) 97,87 %
05.11.2016 00:26 1,2 C 98 % 1013,4 hPa 0,0 l/m 5,1 km/h (1 Bft) O-SO 114 0 min 0,000 mm 0,0 UV-I 0 W/m 0,9 C 1,2 C 9,7 km/h (2 Bft) 97,87 %
05.11.2016 00:28 1,3 C 98 % 1013,3 hPa 0,0 l/m 5,1 km/h (1 Bft) O-SO 119 0 min 0,000 mm 0,0 UV-I 0 W/m 1,0 C 1,3 C 8,0 km/h (2 Bft) 100,00 %
05.11.2016 00:30 1,2 C 98 % 1013,3 hPa 0,0 l/m 5,7 km/h (1 Bft) O-SO 123 0 min 0,000 mm 0,0 UV-I 0 W/m 0,9 C 1,2 C 9,7 km/h (2 Bft) 100,00 %
05.11.2016 00:32 1,2 C 98 % 1013,3 hPa 0,0 l/m 3,4 km/h (1 Bft) O-NO 77 0 min 0,000 mm 0,0 UV-I 0 W/m 0,9 C 1,2 C 6,4 km/h (2 Bft) 100,00 %
05.11.2016 00:34 1,2 C 98 % 1013,3 hPa 0,0 l/m 3,0 km/h (1 Bft) O-SO 120 0 min 0,000 mm 0,0 UV-I 0 W/m 0,9 C 1,2 C 4,8 km/h (1 Bft) 100,00 %
05.11.2016 00:36 1,2 C 98 % 1013,3 hPa 0,0 l/m 4,4 km/h (1 Bft) O 98 0 min 0,000 mm 0,0 UV-I 0 W/m 0,9 C 1,2 C 9,7 km/h (2 Bft) 100,00 %
05.11.2016 00:38 1,3 C 98 % 1013,3 hPa 0,0 l/m 4,0 km/h (1 Bft) NO 40 0 min 0,000 mm 0,0 UV-I 0 W/m 1,0 C 1,3 C 6,4 km/h (2 Bft) 97,87 %
05.11.2016 00:40 1,3 C 98 % 1013,3 hPa 0,0 l/m 5,0 km/h (1 Bft) O-NO 77 0 min 0,000 mm 0,0 UV-I 0 W/m 1,0 C 1,3 C 6,4 km/h (2 Bft) 100,00 %
05.11.2016 00:42 1,3 C 98 % 1013,2 hPa 0,0 l/m 4,3 km/h (1 Bft) O-NO 69 0 min 0,000 mm 0,0 UV-I 0 W/m 1,0 C 1,3 C 8,0 km/h (2 Bft) 100,00 %
05.11.2016 00:44 1,3 C 98 % 1013,3 hPa 0,0 l/m 3,1 km/h (1 Bft) NO 56 0 min 0,000 mm 0,0 UV-I 0 W/m 1,0 C 1,3 C 6,4 km/h (2 Bft) 100,00 %
05.11.2016 00:46 1,3 C 98 % 1013,2 hPa 0,0 l/m 3,4 km/h (1 Bft) O-NO 57 0 min 0,000 mm 0,0 UV-I 0 W/m 1,0 C 1,3 C 6,4 km/h (2 Bft) 100,00 %
05.11.2016 00:48 1,3 C 98 % 1013,2 hPa 0,0 l/m 2,7 km/h (1 Bft) O-SO 107 0 min 0,000 mm 0,0 UV-I 0 W/m 1,0 C 1,3 C 4,8 km/h (1 Bft) 100,00 %
05.11.2016 00:50 1,3 C 98 % 1013,2 hPa 0,0 l/m 4,3 km/h (1 Bft) SO 138 0 min 0,000 mm 0,0 UV-I 0 W/m 1,0 C 1,3 C 9,7 km/h (2 Bft) 100,00 %
05.11.2016 00:52 1,3 C 98 % 1013,2 hPa 0,0 l/m 1,1 km/h (1 Bft) SO 138 0 min 0,000 mm 0,0 UV-I 0 W/m 1,0 C 1,3 C 3,2 km/h (1 Bft) 100,00 %
05.11.2016 00:54 1,3 C 98 % 1013,2 hPa 0,0 l/m 3,4 km/h (1 Bft) O-SO 117 0 min 0,000 mm 0,0 UV-I 0 W/m 1,0 C 1,3 C 6,4 km/h (2 Bft) 96,43 %
05.11.2016 00:56 1,3 C 98 % 1013,1 hPa 0,0 l/m 3,7 km/h (1 Bft) O-SO 119 0 min 0,000 mm 0,0 UV-I 0 W/m 1,0 C 1,3 C 6,4 km/h (2 Bft) 97,87 %
05.11.2016 00:58 1,3 C 98 % 1013,1 hPa 0,0 l/m 3,6 km/h (1 Bft) O 101 0 min 0,000 mm 0,0 UV-I 0 W/m 1,0 C 1,3 C 6,4 km/h (2 Bft) 97,62 %
05.11.2016 01:00 1,3 C 98 % 1013,0 hPa 0,0 l/m 6,1 km/h (2 Bft) O-SO 104 0 min 0,000 mm 0,0 UV-I 0 W/m 1,0 C 1,3 C 9,7 km/h (2 Bft) 97,56 %
05.11.2016 01:02 1,3 C 98 % 1013,1 hPa 0,0 l/m 4,2 km/h (1 Bft) O-SO 110 0 min 0,000 mm 0,0 UV-I 0 W/m 1,0 C 1,3 C 6,4 km/h (2 Bft) 98,11 %
05.11.2016 01:04 1,3 C 98 % 1013,0 hPa 0,0 l/m 4,7 km/h (1 Bft) SO 129 0 min 0,000 mm 0,0 UV-I 0 W/m 1,0 C 1,3 C 6,4 km/h (2 Bft) 98,11 %
05.11.2016 01:06 1,2 C 98 % 1013,0 hPa 0,0 l/m 4,7 km/h (1 Bft) O-SO 105 0 min 0,000 mm 0,0 UV-I 0 W/m 0,9 C 1,2 C 9,7 km/h (2 Bft) 94,74 %
05.11.2016 01:08 1,2 C 98 % 1012,9 hPa 0,0 l/m 5,8 km/h (2 Bft) O 85 0 min 0,000 mm 0,0 UV-I 0 W/m 0,9 C 1,2 C 11,3 km/h (2 Bft) 98,00 %
05.11.2016 01:10 1,2 C 98 % 1012,9 hPa 0,0 l/m 5,7 km/h (1 Bft) O 94 0 min 0,000 mm 0,0 UV-I 0 W/m 0,9 C 1,2 C 9,7 km/h (2 Bft) 96,23 %
05.11.2016 01:12 1,2 C 98 % 1013,0 hPa 0,0 l/m 4,2 km/h (1 Bft) O 100 0 min 0,000 mm 0,0 UV-I 0 W/m 0,9 C 1,2 C 6,4 km/h (2 Bft) 95,45 %
05.11.2016 01:14 1,2 C 98 % 1013,0 hPa 0,0 l/m 1,0 km/h (0 Bft) O 100 0 min 0,000 mm 0,0 UV-I 0 W/m 0,9 C 1,2 C 3,2 km/h (1 Bft) 97,37 %
05.11.2016 01:16 1,2 C 98 % 1013,0 hPa 0,0 l/m 1,9 km/h (1 Bft) O 100 0 min 0,000 mm 0,0 UV-I 0 W/m 0,9 C 1,2 C 3,2 km/h (1 Bft) 98,11 %
05.11.2016 01:18 1,2 C 98 % 1013,0 hPa 0,0 l/m 4,4 km/h (1 Bft) O-NO 57 0 min 0,000 mm 0,0 UV-I 0 W/m 0,9 C 1,2 C 8,0 km/h (2 Bft) 98,00 %
05.11.2016 01:20 1,2 C 98 % 1013,0 hPa 0,0 l/m 4,6 km/h (1 Bft) NO 48 0 min 0,000 mm 0,0 UV-I 0 W/m 0,9 C 1,2 C 8,0 km/h (2 Bft) 97,37 %
05.11.2016 01:22 1,2 C 98 % 1013,0 hPa 0,0 l/m 4,2 km/h (1 Bft) NO 51 0 min 0,000 mm 0,0 UV-I 0 W/m 0,9 C 1,2 C 6,4 km/h (2 Bft) 97,87 %
05.11.2016 01:24 1,3 C 98 % 1012,9 hPa 0,0 l/m 4,3 km/h (1 Bft) NO 54 0 min 0,000 mm 0,0 UV-I 0 W/m 1,0 C 1,3 C 6,4 km/h (2 Bft) 97,87 %
05.11.2016 01:26 1,2 C 98 % 1012,9 hPa 0,0 l/m 5,6 km/h (1 Bft) O-NO 63 0 min 0,000 mm 0,0 UV-I 0 W/m 0,9 C 1,2 C 8,0 km/h (2 Bft) 98,00 %
05.11.2016 01:28 1,2 C 98 % 1012,9 hPa 0,0 l/m 6,4 km/h (2 Bft) O 99 0 min 0,000 mm 0,0 UV-I 0 W/m 0,9 C 1,2 C 11,3 km/h (2 Bft) 98,11 %
05.11.2016 01:30 1,2 C 98 % 1013,0 hPa 0,0 l/m 3,5 km/h (1 Bft) O-SO 103 0 min 0,000 mm 0,0 UV-I 0 W/m 0,9 C 1,2 C 9,7 km/h (2 Bft) 97,56 %
05.11.2016 01:32 1,2 C 98 % 1013,1 hPa 0,0 l/m 2,2 km/h (1 Bft) O-NO 69 0 min 0,000 mm 0,0 UV-I 0 W/m 0,9 C 1,2 C 4,8 km/h (1 Bft) 100,00 %
05.11.2016 01:34 1,2 C 98 % 1013,1 hPa 0,0 l/m 4,0 km/h (1 Bft) O-NO 61 0 min 0,000 mm 0,0 UV-I 0 W/m 0,9 C 1,2 C 6,4 km/h (2 Bft) 97,44 %
05.11.2016 01:36 1,1 C 98 % 1013,0 hPa 0,0 l/m 2,2 km/h (1 Bft) O-SO 119 0 min 0,000 mm 0,0 UV-I 0 W/m 0,8 C 1,1 C 4,8 km/h (1 Bft) 100,00 %
05.11.2016 01:38 1,1 C 98 % 1013,0 hPa 0,0 l/m 5,8 km/h (2 Bft) O-SO 118 0 min 0,000 mm 0,0 UV-I 0 W/m 0,8 C 1,1 C 9,7 km/h (2 Bft) 95,74 %
05.11.2016 01:40 1,1 C 98 % 1013,1 hPa 0,0 l/m 3,3 km/h (1 Bft) O-SO 118 0 min 0,000 mm 0,0 UV-I 0 W/m 0,8 C 1,1 C 6,4 km/h (2 Bft) 100,00 %
05.11.2016 01:42 1,1 C 98 % 1013,0 hPa 0,0 l/m 4,3 km/h (1 Bft) O-SO 118 0 min 0,000 mm 0,0 UV-I 0 W/m 0,8 C 1,1 C 4,8 km/h (1 Bft) 100,00 %
05.11.2016 01:44 1,1 C 98 % 1012,9 hPa 0,0 l/m 4,4 km/h (1 Bft) O-SO 113 0 min 0,000 mm 0,0 UV-I 0 W/m 0,8 C 1,1 C 6,4 km/h (2 Bft) 100,00 %
05.11.2016 01:46 1,2 C 98 % 1013,0 hPa 0,0 l/m 2,3 km/h (1 Bft) O-SO 113 0 min 0,000 mm 0,0 UV-I 0 W/m 0,9 C 1,2 C 3,2 km/h (1 Bft) 97,87 %
05.11.2016 01:48 1,2 C 98 % 1012,9 hPa 0,0 l/m 1,5 km/h (1 Bft) O-SO 113 0 min 0,000 mm 0,0 UV-I 0 W/m 0,9 C 1,2 C 3,2 km/h (1 Bft) 100,00 %
05.11.2016 01:50 1,1 C 98 % 1012,9 hPa 0,0 l/m 2,9 km/h (1 Bft) O-SO 113 0 min 0,000 mm 0,0 UV-I 0 W/m 0,8 C 1,1 C 4,8 km/h (1 Bft) 97,87 %
05.11.2016 01:52 1,1 C 98 % 1012,9 hPa 0,0 l/m 4,0 km/h (1 Bft) O-SO 105 0 min 0,000 mm 0,0 UV-I 0 W/m 0,8 C 1,1 C 6,4 km/h (2 Bft) 100,00 %
05.11.2016 01:54 1,1 C 98 % 1012,7 hPa 0,0 l/m 5,1 km/h (1 Bft) O-SO 109 0 min 0,000 mm 0,0 UV-I 0 W/m 0,8 C 1,1 C 6,4 km/h (2 Bft) 100,00 %
05.11.2016 01:56 1,1 C 98 % 1012,7 hPa 0,0 l/m 3,5 km/h (1 Bft) O-NO 62 0 min 0,000 mm 0,0 UV-I 0 W/m 0,8 C 1,1 C 8,0 km/h (2 Bft) 100,00 %
05.11.2016 01:58 1,1 C 98 % 1012,7 hPa 0,0 l/m 6,3 km/h (2 Bft) O-NO 67 0 min 0,000 mm 0,0 UV-I 0 W/m 0,8 C 1,1 C 9,7 km/h (2 Bft) 100,00 %
05.11.2016 02:00 1,2 C 98 % 1012,7 hPa 0,0 l/m 5,5 km/h (1 Bft) O-NO 72 0 min 0,000 mm 0,0 UV-I 0 W/m 0,9 C 1,2 C 8,0 km/h (2 Bft) 100,00 %
05.11.2016 02:02 1,2 C 98 % 1012,7 hPa 0,0 l/m 4,3 km/h (1 Bft) O-NO 72 0 min 0,000 mm 0,0 UV-I 0 W/m 0,9 C 1,2 C 6,4 km/h (2 Bft) 100,00 %
05.11.2016 02:04 1,2 C 98 % 1012,7 hPa 0,0 l/m 3,1 km/h (1 Bft) O-SO 121 0 min 0,000 mm 0,0 UV-I 0 W/m 0,9 C 1,2 C 6,4 km/h (2 Bft) 100,00 %
05.11.2016 02:06 1,2 C 98 % 1012,7 hPa 0,0 l/m 2,5 km/h (1 Bft) O-SO 119 0 min 0,000 mm 0,0 UV-I 0 W/m 0,9 C 1,2 C 6,4 km/h (2 Bft) 97,14 %
05.11.2016 02:08 1,1 C 98 % 1012,6 hPa 0,0 l/m 0,5 km/h (0 Bft) O-SO 119 0 min 0,000 mm 0,0 UV-I 0 W/m 0,8 C 1,1 C 3,2 km/h (1 Bft) 100,00 %
05.11.2016 02:10 1,1 C 98 % 1012,6 hPa 0,0 l/m 3,3 km/h (1 Bft) O-SO 117 0 min 0,000 mm 0,0 UV-I 0 W/m 0,8 C 1,1 C 4,8 km/h (1 Bft) 100,00 %
05.11.2016 02:12 1,1 C 98 % 1012,7 hPa 0,0 l/m 0,3 km/h (0 Bft) O-SO 117 0 min 0,000 mm 0,0 UV-I 0 W/m 0,8 C 1,1 C 1,6 km/h (1 Bft) 100,00 %
05.11.2016 02:14 1,2 C 98 % 1012,6 hPa 0,0 l/m 0,5 km/h (0 Bft) O-SO 117 0 min 0,000 mm 0,0 UV-I 0 W/m 0,9 C 1,2 C 3,2 km/h (1 Bft) 100,00 %
05.11.2016 02:16 1,2 C 98 % 1012,7 hPa 0,0 l/m 0,9 km/h (0 Bft) O-SO 117 0 min 0,000 mm 0,0 UV-I 0 W/m 0,9 C 1,2 C 3,2 km/h (1 Bft) 100,00 %
05.11.2016 02:18 1,2 C 98 % 1012,6 hPa 0,0 l/m 0,2 km/h (0 Bft) O-SO 117 0 min 0,000 mm 0,0 UV-I 0 W/m 0,9 C 1,2 C 1,6 km/h (1 Bft) 100,00 %
05.11.2016 02:20 1,2 C 98 % 1012,5 hPa 0,0 l/m 2,6 km/h (1 Bft) O-SO 117 0 min 0,000 mm 0,0 UV-I 0 W/m 0,9 C 1,2 C 4,8 km/h (1 Bft) 100,00 %
05.11.2016 02:22 1,2 C 98 % 1012,6 hPa 0,0 l/m 0,3 km/h (0 Bft) O-SO 117 0 min 0,000 mm 0,0 UV-I 0 W/m 0,9 C 1,2 C 1,6 km/h (1 Bft) 100,00 %
05.11.2016 02:24 1,2 C 98 % 1012,4 hPa 0,0 l/m 4,1 km/h (1 Bft) O-NO 59 0 min 0,000 mm 0,0 UV-I 0 W/m 0,9 C 1,2 C 6,4 km/h (2 Bft) 98,00 %
05.11.2016 02:26 1,3 C 98 % 1012,4 hPa 0,0 l/m 6,0 km/h (2 Bft) N-NO 24 0 min 0,000 mm 0,0 UV-I 0 W/m 1,0 C 1,3 C 9,7 km/h (2 Bft) 100,00 %
05.11.2016 02:28 1,3 C 98 % 1012,5 hPa 0,0 l/m 5,6 km/h (1 Bft) NO 40 0 min 0,000 mm 0,0 UV-I 0 W/m 1,0 C 1,3 C 8,0 km/h (2 Bft) 96,43 %
05.11.2016 02:30 1,2 C 98 % 1012,4 hPa 0,0 l/m 6,7 km/h (2 Bft) NO 36 0 min 0,000 mm 0,0 UV-I 0 W/m 0,9 C 0,9 C 8,0 km/h (2 Bft) 100,00 %
05.11.2016 02:32 1,2 C 98 % 1012,4 hPa 0,0 l/m 4,0 km/h (1 Bft) N-NO 22 0 min 0,000 mm 0,0 UV-I 0 W/m 0,9 C 1,2 C 8,0 km/h (2 Bft) 100,00 %
05.11.2016 02:34 1,3 C 98 % 1012,3 hPa 0,0 l/m 7,1 km/h (2 Bft) NO 51 0 min 0,000 mm 0,0 UV-I 0 W/m 1,0 C 0,6 C 9,7 km/h (2 Bft) 100,00 %
05.11.2016 02:36 1,2 C 98 % 1012,3 hPa 0,0 l/m 6,9 km/h (2 Bft) O-NO 57 0 min 0,000 mm 0,0 UV-I 0 W/m 0,9 C 0,7 C 9,7 km/h (2 Bft) 94,29 %
05.11.2016 02:38 1,2 C 98 % 1012,3 hPa 0,0 l/m 5,1 km/h (1 Bft) NO 53 0 min 0,000 mm 0,0 UV-I 0 W/m 0,9 C 1,2 C 8,0 km/h (2 Bft) 100,00 %
05.11.2016 02:40 1,2 C 98 % 1012,2 hPa 0,0 l/m 5,8 km/h (2 Bft) O-NO 65 0 min 0,000 mm 0,0 UV-I 0 W/m 0,9 C 1,2 C 9,7 km/h (2 Bft) 100,00 %
05.11.2016 02:42 1,2 C 98 % 1012,3 hPa 0,0 l/m 5,5 km/h (1 Bft) NO 55 0 min 0,000 mm 0,0 UV-I 0 W/m 0,9 C 1,2 C 8,0 km/h (2 Bft) 100,00 %
05.11.2016 02:44 1,2 C 98 % 1012,3 hPa 0,0 l/m 4,5 km/h (1 Bft) NO 55 0 min 0,000 mm 0,0 UV-I 0 W/m 0,9 C 1,2 C 6,4 km/h (2 Bft) 100,00 %
05.11.2016 02:46 1,2 C 98 % 1012,3 hPa 0,0 l/m 6,5 km/h (2 Bft) O-NO 63 0 min 0,000 mm 0,0 UV-I 0 W/m 0,9 C 1,1 C 9,7 km/h (2 Bft) 96,00 %
05.11.2016 02:48 1,2 C 99 % 1012,3 hPa 0,0 l/m 5,7 km/h (1 Bft) NO 53 0 min 0,000 mm 0,0 UV-I 0 W/m 1,1 C 1,2 C 6,4 km/h (2 Bft) 100,00 %
05.11.2016 02:50 1,2 C 98 % 1012,2 hPa 0,0 l/m 7,4 km/h (2 Bft) O-NO 65 0 min 0,000 mm 0,0 UV-I 0 W/m 0,9 C 0,2 C 11,3 km/h (2 Bft) 98,00 %
05.11.2016 02:52 1,2 C 98 % 1012,3 hPa 0,0 l/m 6,0 km/h (2 Bft) O 79 0 min 0,000 mm 0,0 UV-I 0 W/m 0,9 C 1,2 C 8,0 km/h (2 Bft) 100,00 %
05.11.2016 02:54 1,2 C 98 % 1012,3 hPa 0,0 l/m 3,3 km/h (1 Bft) O-NO 72 0 min 0,000 mm 0,0 UV-I 0 W/m 0,9 C 1,2 C 4,8 km/h (1 Bft) 98,18 %
05.11.2016 02:56 1,2 C 98 % 1012,1 hPa 0,0 l/m 4,8 km/h (1 Bft) O-NO 73 0 min 0,000 mm 0,0 UV-I 0 W/m 0,9 C 1,2 C 6,4 km/h (2 Bft) 97,62 %
05.11.2016 02:58 1,2 C 98 % 1012,0 hPa 0,0 l/m 8,8 km/h (2 Bft) O-NO 76 0 min 0,000 mm 0,0 UV-I 0 W/m 0,9 C -1,1 C 12,9 km/h (3 Bft) 96,36 %
05.11.2016 03:00 1,3 C 98 % 1012,0 hPa 0,0 l/m 5,8 km/h (2 Bft) O-NO 78 0 min 0,000 mm 0,0 UV-I 0 W/m 1,0 C 1,3 C 8,0 km/h (2 Bft) 97,62 %
05.11.2016 03:02 1,2 C 98 % 1012,0 hPa 0,0 l/m 6,0 km/h (2 Bft) O-NO 74 0 min 0,000 mm 0,0 UV-I 0 W/m 0,9 C 1,2 C 9,7 km/h (2 Bft) 97,37 %
05.11.2016 03:04 1,2 C 98 % 1012,1 hPa 0,0 l/m 5,8 km/h (2 Bft) O-NO 69 0 min 0,000 mm 0,0 UV-I 0 W/m 0,9 C 1,2 C 8,0 km/h (2 Bft) 98,11 %
05.11.2016 03:06 1,2 C 99 % 1012,1 hPa 0,0 l/m 4,0 km/h (1 Bft) O-NO 64 0 min 0,000 mm 0,0 UV-I 0 W/m 1,1 C 1,2 C 6,4 km/h (2 Bft) 97,87 %
05.11.2016 03:08 1,2 C 99 % 1012,1 hPa 0,0 l/m 4,0 km/h (1 Bft) NO 50 0 min 0,000 mm 0,0 UV-I 0 W/m 1,1 C 1,2 C 6,4 km/h (2 Bft) 98,00 %
05.11.2016 03:10 1,2 C 99 % 1012,1 hPa 0,0 l/m 3,8 km/h (1 Bft) O-NO 71 0 min 0,000 mm 0,0 UV-I 0 W/m 1,1 C 1,2 C 4,8 km/h (1 Bft) 97,56 %
05.11.2016 03:12 1,2 C 99 % 1012,0 hPa 0,0 l/m 4,9 km/h (1 Bft) O-NO 71 0 min 0,000 mm 0,0 UV-I 0 W/m 1,1 C 1,2 C 6,4 km/h (2 Bft) 98,00 %
05.11.2016 03:14 1,2 C 99 % 1011,9 hPa 0,0 l/m 5,9 km/h (2 Bft) O-NO 76 0 min 0,000 mm 0,0 UV-I 0 W/m 1,1 C 1,2 C 8,0 km/h (2 Bft) 96,23 %
05.11.2016 03:16 1,2 C 99 % 1012,0 hPa 0,0 l/m 5,5 km/h (1 Bft) O 82 0 min 0,000 mm 0,0 UV-I 0 W/m 1,1 C 1,2 C 8,0 km/h (2 Bft) 95,12 %
05.11.2016 03:18 1,3 C 98 % 1012,0 hPa 0,0 l/m 2,1 km/h (1 Bft) O 82 0 min 0,000 mm 0,0 UV-I 0 W/m 1,0 C 1,3 C 3,2 km/h (1 Bft) 96,23 %
05.11.2016 03:20 1,3 C 99 % 1012,0 hPa 0,0 l/m 3,3 km/h (1 Bft) O 82 0 min 0,000 mm 0,0 UV-I 0 W/m 1,2 C 1,3 C 4,8 km/h (1 Bft) 97,37 %
05.11.2016 03:22 1,3 C 99 % 1011,9 hPa 0,0 l/m 3,3 km/h (1 Bft) O-NO 66 0 min 0,000 mm 0,0 UV-I 0 W/m 1,2 C 1,3 C 4,8 km/h (1 Bft) 98,00 %
05.11.2016 03:24 1,3 C 99 % 1011,9 hPa 0,0 l/m 5,6 km/h (1 Bft) O-NO 63 0 min 0,000 mm 0,0 UV-I 0 W/m 1,2 C 1,3 C 9,7 km/h (2 Bft) 98,11 %
05.11.2016 03:26 1,3 C 99 % 1011,8 hPa 0,0 l/m 6,5 km/h (2 Bft) NO 55 0 min 0,000 mm 0,0 UV-I 0 W/m 1,2 C 1,2 C 9,7 km/h (2 Bft) 97,44 %
05.11.2016 03:28 1,3 C 99 % 1011,8 hPa 0,0 l/m 5,4 km/h (1 Bft) NO 53 0 min 0,000 mm 0,0 UV-I 0 W/m 1,2 C 1,3 C 8,0 km/h (2 Bft) 92,68 %
05.11.2016 03:30 1,3 C 99 % 1011,8 hPa 0,0 l/m 4,2 km/h (1 Bft) NO 51 0 min 0,000 mm 0,0 UV-I 0 W/m 1,2 C 1,3 C 6,4 km/h (2 Bft) 94,64 %
05.11.2016 03:32 1,3 C 99 % 1011,8 hPa 0,0 l/m 5,1 km/h (1 Bft) NO 38 0 min 0,000 mm 0,0 UV-I 0 W/m 1,2 C 1,3 C 8,0 km/h (2 Bft) 100,00 %
05.11.2016 03:34 1,3 C 98 % 1011,7 hPa 0,0 l/m 6,7 km/h (2 Bft) O-NO 67 0 min 0,000 mm 0,0 UV-I 0 W/m 1,0 C 1,0 C 9,7 km/h (2 Bft) 100,00 %
05.11.2016 03:36 1,3 C 98 % 1011,7 hPa 0,0 l/m 6,5 km/h (2 Bft) O 80 0 min 0,000 mm 0,0 UV-I 0 W/m 1,0 C 1,2 C 12,9 km/h (3 Bft) 100,00 %
05.11.2016 03:38 1,3 C 99 % 1011,7 hPa 0,0 l/m 6,0 km/h (2 Bft) O-NO 77 0 min 0,000 mm 0,0 UV-I 0 W/m 1,2 C 1,3 C 8,0 km/h (2 Bft) 100,00 %
05.11.2016 03:40 1,3 C 99 % 1011,7 hPa 0,0 l/m 4,9 km/h (1 Bft) O-NO 74 0 min 0,000 mm 0,0 UV-I 0 W/m 1,2 C 1,3 C 6,4 km/h (2 Bft) 98,11 %
05.11.2016 03:42 1,3 C 99 % 1011,7 hPa 0,0 l/m 3,4 km/h (1 Bft) O-NO 65 0 min 0,000 mm 0,0 UV-I 0 W/m 1,2 C 1,3 C 6,4 km/h (2 Bft) 100,00 %
05.11.2016 03:44 1,3 C 99 % 1011,8 hPa 0,0 l/m 1,5 km/h (1 Bft) O-NO 65 0 min 0,000 mm 0,0 UV-I 0 W/m 1,2 C 1,3 C 4,8 km/h (1 Bft) 100,00 %
05.11.2016 03:46 1,3 C 99 % 1011,8 hPa 0,0 l/m 1,5 km/h (1 Bft) O-NO 65 0 min 0,000 mm 0,0 UV-I 0 W/m 1,2 C 1,3 C 4,8 km/h (1 Bft) 100,00 %
05.11.2016 03:48 1,3 C 99 % 1011,8 hPa 0,0 l/m 3,9 km/h (1 Bft) O-NO 65 0 min 0,000 mm 0,0 UV-I 0 W/m 1,2 C 1,3 C 4,8 km/h (1 Bft) 95,65 %
05.11.2016 03:50 1,3 C 99 % 1011,7 hPa 0,0 l/m 4,5 km/h (1 Bft) O 84 0 min 0,000 mm 0,0 UV-I 0 W/m 1,2 C 1,3 C 6,4 km/h (2 Bft) 96,92 %
05.11.2016 03:52 1,3 C 99 % 1011,7 hPa 0,0 l/m 5,1 km/h (1 Bft) SO 134 0 min 0,000 mm 0,0 UV-I 0 W/m 1,2 C 1,3 C 9,7 km/h (2 Bft) 100,00 %
05.11.2016 03:54 1,3 C 99 % 1011,6 hPa 0,0 l/m 7,2 km/h (2 Bft) O-NO 72 0 min 0,000 mm 0,0 UV-I 0 W/m 1,2 C 0,5 C 9,7 km/h (2 Bft) 100,00 %
05.11.2016 03:56 1,3 C 99 % 1011,5 hPa 0,0 l/m 5,5 km/h (1 Bft) O 79 0 min 0,000 mm 0,0 UV-I 0 W/m 1,2 C 1,3 C 9,7 km/h (2 Bft) 100,00 %
05.11.2016 03:58 1,2 C 99 % 1011,5 hPa 0,0 l/m 7,1 km/h (2 Bft) O 94 0 min 0,000 mm 0,0 UV-I 0 W/m 1,1 C 0,5 C 11,3 km/h (2 Bft) 100,00 %
05.11.2016 04:00 1,2 C 99 % 1011,5 hPa 0,0 l/m 7,7 km/h (2 Bft) O 95 0 min 0,000 mm 0,0 UV-I 0 W/m 1,1 C -0,1 C 12,9 km/h (3 Bft) 100,00 %
05.11.2016 04:02 1,2 C 99 % 1011,5 hPa 0,0 l/m 3,0 km/h (1 Bft) O-SO 112 0 min 0,000 mm 0,0 UV-I 0 W/m 1,1 C 1,2 C 4,8 km/h (1 Bft) 100,00 %
05.11.2016 04:04 1,2 C 99 % 1011,5 hPa 0,0 l/m 4,6 km/h (1 Bft) O-NO 65 0 min 0,000 mm 0,0 UV-I 0 W/m 1,1 C 1,2 C 8,0 km/h (2 Bft) 100,00 %
05.11.2016 04:06 1,2 C 99 % 1011,5 hPa 0,0 l/m 5,2 km/h (1 Bft) O-NO 68 0 min 0,000 mm 0,0 UV-I 0 W/m 1,1 C 1,2 C 8,0 km/h (2 Bft) 100,00 %
05.11.2016 04:08 1,2 C 99 % 1011,5 hPa 0,0 l/m 5,8 km/h (2 Bft) O-NO 65 0 min 0,000 mm 0,0 UV-I 0 W/m 1,1 C 1,2 C 9,7 km/h (2 Bft) 100,00 %
05.11.2016 04:10 1,1 C 99 % 1011,6 hPa 0,0 l/m 6,9 km/h (2 Bft) O-NO 63 0 min 0,000 mm 0,0 UV-I 0 W/m 1,0 C 0,6 C 9,7 km/h (2 Bft) 100,00 %
05.11.2016 04:12 1,1 C 98 % 1011,6 hPa 0,0 l/m 5,7 km/h (1 Bft) O-NO 76 0 min 0,000 mm 0,0 UV-I 0 W/m 0,8 C 1,1 C 9,7 km/h (2 Bft) 98,11 %
05.11.2016 04:14 1,1 C 98 % 1011,6 hPa 0,0 l/m 3,9 km/h (1 Bft) O 81 0 min 0,000 mm 0,0 UV-I 0 W/m 0,8 C 1,1 C 8,0 km/h (2 Bft) 100,00 %
05.11.2016 04:16 1,1 C 98 % 1011,7 hPa 0,0 l/m 2,8 km/h (1 Bft) O 81 0 min 0,000 mm 0,0 UV-I 0 W/m 0,8 C 1,1 C 6,4 km/h (2 Bft) 97,56 %
05.11.2016 04:18 1,1 C 98 % 1011,6 hPa 0,0 l/m 5,4 km/h (1 Bft) O-NO 65 0 min 0,000 mm 0,0 UV-I 0 W/m 0,8 C 1,1 C 8,0 km/h (2 Bft) 100,00 %
05.11.2016 04:20 1,1 C 98 % 1011,7 hPa 0,0 l/m 2,3 km/h (1 Bft) O-NO 65 0 min 0,000 mm 0,0 UV-I 0 W/m 0,8 C 1,1 C 6,4 km/h (2 Bft) 98,00 %
05.11.2016 04:22 1,1 C 98 % 1011,6 hPa 0,0 l/m 2,7 km/h (1 Bft) O-SO 108 0 min 0,000 mm 0,0 UV-I 0 W/m 0,8 C 1,1 C 4,8 km/h (1 Bft) 97,87 %
05.11.2016 04:24 1,1 C 98 % 1011,5 hPa 0,0 l/m 6,3 km/h (2 Bft) SO 124 0 min 0,000 mm 0,0 UV-I 0 W/m 0,8 C 1,1 C 9,7 km/h (2 Bft) 97,87 %
05.11.2016 04:26 1,1 C 98 % 1011,4 hPa 0,0 l/m 6,0 km/h (2 Bft) O-SO 117 0 min 0,000 mm 0,0 UV-I 0 W/m 0,8 C 1,1 C 9,7 km/h (2 Bft) 100,00 %
05.11.2016 04:28 1,1 C 98 % 1011,3 hPa 0,0 l/m 6,3 km/h (2 Bft) O-SO 103 0 min 0,000 mm 0,0 UV-I 0 W/m 0,8 C 1,1 C 9,7 km/h (2 Bft) 100,00 %
05.11.2016 04:30 1,1 C 98 % 1011,4 hPa 0,0 l/m 5,7 km/h (1 Bft) O-SO 109 0 min 0,000 mm 0,0 UV-I 0 W/m 0,8 C 1,1 C 9,7 km/h (2 Bft) 100,00 %
05.11.2016 04:32 1,1 C 98 % 1011,4 hPa 0,0 l/m 2,5 km/h (1 Bft) O-SO 120 0 min 0,000 mm 0,0 UV-I 0 W/m 0,8 C 1,1 C 6,4 km/h (2 Bft) 96,00 %
05.11.2016 04:34 1,1 C 98 % 1011,4 hPa 0,0 l/m 5,1 km/h (1 Bft) O-SO 113 0 min 0,000 mm 0,0 UV-I 0 W/m 0,8 C 1,1 C 9,7 km/h (2 Bft) 97,87 %
05.11.2016 04:36 1,0 C 98 % 1011,2 hPa 0,0 l/m 7,7 km/h (2 Bft) SO 125 0 min 0,000 mm 0,0 UV-I 0 W/m 0,7 C -0,3 C 11,3 km/h (2 Bft) 100,00 %
05.11.2016 04:38 1,0 C 98 % 1011,2 hPa 0,0 l/m 6,8 km/h (2 Bft) O-SO 114 0 min 0,000 mm 0,0 UV-I 0 W/m 0,7 C 0,6 C 11,3 km/h (2 Bft) 100,00 %
05.11.2016 04:40 1,0 C 98 % 1011,1 hPa 0,0 l/m 8,1 km/h (2 Bft) O 91 0 min 0,000 mm 0,0 UV-I 0 W/m 0,7 C -0,7 C 12,9 km/h (3 Bft) 100,00 %
05.11.2016 04:42 1,0 C 98 % 1011,0 hPa 0,0 l/m 6,7 km/h (2 Bft) O 98 0 min 0,000 mm 0,0 UV-I 0 W/m 0,7 C 0,7 C 11,3 km/h (2 Bft) 100,00 %
05.11.2016 04:44 1,1 C 98 % 1011,0 hPa 0,0 l/m 5,0 km/h (1 Bft) O 79 0 min 0,000 mm 0,0 UV-I 0 W/m 0,8 C 1,1 C 8,0 km/h (2 Bft) 97,37 %
05.11.2016 04:46 1,1 C 98 % 1011,0 hPa 0,0 l/m 3,3 km/h (1 Bft) O-NO 61 0 min 0,000 mm 0,0 UV-I 0 W/m 0,8 C 1,1 C 6,4 km/h (2 Bft) 100,00 %
05.11.2016 04:48 1,1 C 98 % 1011,0 hPa 0,0 l/m 1,3 km/h (1 Bft) O-NO 61 0 min 0,000 mm 0,0 UV-I 0 W/m 0,8 C 1,1 C 6,4 km/h (2 Bft) 100,00 %
05.11.2016 04:50 1,1 C 98 % 1011,0 hPa 0,0 l/m 3,8 km/h (1 Bft) O-NO 59 0 min 0,000 mm 0,0 UV-I 0 W/m 0,8 C 1,1 C 6,4 km/h (2 Bft) 100,00 %
05.11.2016 04:52 1,1 C 98 % 1010,9 hPa 0,0 l/m 5,8 km/h (2 Bft) O 82 0 min 0,000 mm 0,0 UV-I 0 W/m 0,8 C 1,1 C 9,7 km/h (2 Bft) 95,74 %
05.11.2016 04:54 1,2 C 98 % 1011,0 hPa 0,0 l/m 6,2 km/h (2 Bft) O 96 0 min 0,000 mm 0,0 UV-I 0 W/m 0,9 C 1,2 C 11,3 km/h (2 Bft) 100,00 %
05.11.2016 04:56 1,2 C 99 % 1011,0 hPa 0,0 l/m 7,5 km/h (2 Bft) O-SO 104 0 min 0,000 mm 0,0 UV-I 0 W/m 1,1 C 0,1 C 12,9 km/h (3 Bft) 100,00 %
05.11.2016 04:58 1,2 C 99 % 1011,0 hPa 0,0 l/m 6,0 km/h (2 Bft) O 86 0 min 0,000 mm 0,0 UV-I 0 W/m 1,1 C 1,2 C 11,3 km/h (2 Bft) 100,00 %
05.11.2016 05:00 1,2 C 99 % 1010,9 hPa 0,0 l/m 4,9 km/h (1 Bft) O 85 0 min 0,000 mm 0,0 UV-I 0 W/m 1,1 C 1,2 C 8,0 km/h (2 Bft) 100,00 %
05.11.2016 05:02 1,2 C 99 % 1010,9 hPa 0,0 l/m 3,4 km/h (1 Bft) O-NO 63 0 min 0,000 mm 0,0 UV-I 0 W/m 1,1 C 1,2 C 8,0 km/h (2 Bft) 98,11 %
05.11.2016 05:04 1,2 C 99 % 1010,9 hPa 0,0 l/m 5,4 km/h (1 Bft) O 84 0 min 0,000 mm 0,0 UV-I 0 W/m 1,1 C 1,2 C 8,0 km/h (2 Bft) 97,87 %
05.11.2016 05:06 1,2 C 99 % 1010,8 hPa 0,0 l/m 6,3 km/h (2 Bft) O-NO 76 0 min 0,000 mm 0,0 UV-I 0 W/m 1,1 C 1,2 C 9,7 km/h (2 Bft) 95,74 %
05.11.2016 05:08 1,2 C 99 % 1010,8 hPa 0,0 l/m 5,5 km/h (1 Bft) O-NO 73 0 min 0,000 mm 0,0 UV-I 0 W/m 1,1 C 1,2 C 8,0 km/h (2 Bft) 94,29 %
05.11.2016 05:10 1,2 C 99 % 1010,9 hPa 0,0 l/m 4,0 km/h (1 Bft) O-SO 119 0 min 0,000 mm 0,0 UV-I 0 W/m 1,1 C 1,2 C 6,4 km/h (2 Bft) 98,00 %
05.11.2016 05:12 1,2 C 99 % 1010,8 hPa 0,0 l/m 3,2 km/h (1 Bft) O-SO 102 0 min 0,000 mm 0,0 UV-I 0 W/m 1,1 C 1,2 C 4,8 km/h (1 Bft) 97,87 %
05.11.2016 05:14 1,2 C 99 % 1010,8 hPa 0,0 l/m 5,2 km/h (1 Bft) O-SO 108 0 min 0,000 mm 0,0 UV-I 0 W/m 1,1 C 1,2 C 9,7 km/h (2 Bft) 96,43 %
05.11.2016 05:16 1,2 C 99 % 1010,8 hPa 0,0 l/m 5,1 km/h (1 Bft) O-NO 67 0 min 0,000 mm 0,0 UV-I 0 W/m 1,1 C 1,2 C 6,4 km/h (2 Bft) 97,56 %
05.11.2016 05:18 1,2 C 99 % 1010,7 hPa 0,0 l/m 5,4 km/h (1 Bft) O-NO 74 0 min 0,000 mm 0,0 UV-I 0 W/m 1,1 C 1,2 C 6,4 km/h (2 Bft) 96,00 %
05.11.2016 05:20 1,2 C 98 % 1010,7 hPa 0,0 l/m 5,7 km/h (1 Bft) O-NO 62 0 min 0,000 mm 0,0 UV-I 0 W/m 0,9 C 1,2 C 8,0 km/h (2 Bft) 97,87 %
05.11.2016 05:22 1,2 C 98 % 1010,6 hPa 0,0 l/m 4,6 km/h (1 Bft) O-NO 61 0 min 0,000 mm 0,0 UV-I 0 W/m 0,9 C 1,2 C 6,4 km/h (2 Bft) 96,00 %
05.11.2016 05:24 1,2 C 98 % 1010,6 hPa 0,0 l/m 4,7 km/h (1 Bft) O-NO 65 0 min 0,000 mm 0,0 UV-I 0 W/m 0,9 C 1,2 C 6,4 km/h (2 Bft) 94,29 %
05.11.2016 05:26 1,2 C 98 % 1010,5 hPa 0,0 l/m 6,6 km/h (2 Bft) O-NO 65 0 min 0,000 mm 0,0 UV-I 0 W/m 0,9 C 1,0 C 11,3 km/h (2 Bft) 98,11 %
05.11.2016 05:28 1,2 C 99 % 1010,4 hPa 0,0 l/m 4,8 km/h (1 Bft) O-NO 67 0 min 0,000 mm 0,0 UV-I 0 W/m 1,1 C 1,2 C 8,0 km/h (2 Bft) 98,11 %
05.11.2016 05:30 1,2 C 99 % 1010,3 hPa 0,0 l/m 4,9 km/h (1 Bft) O-NO 65 0 min 0,000 mm 0,0 UV-I 0 W/m 1,1 C 1,2 C 8,0 km/h (2 Bft) 97,37 %
05.11.2016 05:32 1,2 C 99 % 1010,2 hPa 0,0 l/m 6,7 km/h (2 Bft) O-NO 62 0 min 0,000 mm 0,0 UV-I 0 W/m 1,1 C 0,9 C 9,7 km/h (2 Bft) 97,92 %
05.11.2016 05:34 1,2 C 99 % 1010,3 hPa 0,0 l/m 4,3 km/h (1 Bft) O-NO 58 0 min 0,000 mm 0,0 UV-I 0 W/m 1,1 C 1,2 C 8,0 km/h (2 Bft) 95,74 %
05.11.2016 05:36 1,2 C 99 % 1010,2 hPa 0,0 l/m 4,5 km/h (1 Bft) O-NO 63 0 min 0,000 mm 0,0 UV-I 0 W/m 1,1 C 1,2 C 6,4 km/h (2 Bft) 96,00 %
05.11.2016 05:38 1,2 C 99 % 1010,2 hPa 0,0 l/m 8,6 km/h (2 Bft) NO 50 0 min 0,000 mm 0,0 UV-I 0 W/m 1,1 C -0,9 C 12,9 km/h (3 Bft) 98,00 %
05.11.2016 05:40 1,2 C 99 % 1010,1 hPa 0,0 l/m 6,0 km/h (2 Bft) NO 53 0 min 0,000 mm 0,0 UV-I 0 W/m 1,1 C 1,2 C 8,0 km/h (2 Bft) 100,00 %
05.11.2016 05:43 1,2 C 99 % 1010,1 hPa 0,0 l/m 6,3 km/h (2 Bft) O-NO 64 0 min 0,000 mm 0,0 UV-I 0 W/m 1,1 C 1,2 C 12,9 km/h (3 Bft) 100,00 %
05.11.2016 05:44 1,2 C 99 % 1010,1 hPa 0,0 l/m 7,5 km/h (2 Bft) NO 55 0 min 0,000 mm 0,0 UV-I 0 W/m 1,1 C 0,1 C 9,7 km/h (2 Bft) 100,00 %
05.11.2016 05:46 1,2 C 99 % 1010,1 hPa 0,0 l/m 7,2 km/h (2 Bft) O-NO 73 0 min 0,000 mm 0,0 UV-I 0 W/m 1,1 C 0,4 C 12,9 km/h (3 Bft) 98,00 %
05.11.2016 05:48 1,2 C 98 % 1010,3 hPa 0,0 l/m 8,0 km/h (2 Bft) O-NO 71 0 min 0,000 mm 0,0 UV-I 0 W/m 0,9 C -0,4 C 12,9 km/h (3 Bft) 100,00 %
05.11.2016 05:50 1,1 C 98 % 1010,3 hPa 0,0 l/m 8,0 km/h (2 Bft) O-NO 69 0 min 0,000 mm 0,0 UV-I 0 W/m 0,8 C -0,5 C 11,3 km/h (2 Bft) 100,00 %
05.11.2016 05:52 1,1 C 98 % 1010,3 hPa 0,0 l/m 6,3 km/h (2 Bft) O-NO 76 0 min 0,000 mm 0,0 UV-I 0 W/m 0,8 C 1,1 C 8,0 km/h (2 Bft) 98,00 %
05.11.2016 05:54 1,0 C 99 % 1010,3 hPa 0,0 l/m 6,0 km/h (2 Bft) O-NO 72 0 min 0,000 mm 0,0 UV-I 0 W/m 0,9 C 1,0 C 8,0 km/h (2 Bft) 92,11 %
05.11.2016 05:56 1,1 C 99 % 1010,2 hPa 0,0 l/m 6,3 km/h (2 Bft) O-NO 72 0 min 0,000 mm 0,0 UV-I 0 W/m 1,0 C 1,1 C 8,0 km/h (2 Bft) 98,00 %
05.11.2016 05:58 1,1 C 99 % 1010,2 hPa 0,0 l/m 5,6 km/h (1 Bft) O-NO 57 0 min 0,000 mm 0,0 UV-I 0 W/m 1,0 C 1,1 C 9,7 km/h (2 Bft) 100,00 %
05.11.2016 06:00 1,1 C 99 % 1010,1 hPa 0,0 l/m 6,1 km/h (2 Bft) O-NO 65 0 min 0,000 mm 0,0 UV-I 0 W/m 1,0 C 1,1 C 9,7 km/h (2 Bft) 98,00 %
05.11.2016 06:02 1,1 C 98 % 1010,1 hPa 0,0 l/m 4,9 km/h (1 Bft) O-NO 60 0 min 0,000 mm 0,0 UV-I 0 W/m 0,8 C 1,1 C 8,0 km/h (2 Bft) 100,00 %
05.11.2016 06:04 1,1 C 98 % 1010,2 hPa 0,0 l/m 7,0 km/h (2 Bft) O-NO 58 0 min 0,000 mm 0,0 UV-I 0 W/m 0,8 C 0,5 C 11,3 km/h (2 Bft) 100,00 %
05.11.2016 06:06 1,2 C 98 % 1010,1 hPa 0,0 l/m 5,7 km/h (1 Bft) NO 48 0 min 0,000 mm 0,0 UV-I 0 W/m 0,9 C 1,2 C 8,0 km/h (2 Bft) 100,00 %
05.11.2016 06:08 1,2 C 98 % 1010,1 hPa 0,0 l/m 4,4 km/h (1 Bft) O-NO 68 0 min 0,000 mm 0,0 UV-I 0 W/m 0,9 C 1,2 C 6,4 km/h (2 Bft) 98,36 %
05.11.2016 06:10 1,2 C 98 % 1010,2 hPa 0,0 l/m 4,1 km/h (1 Bft) NO 44 0 min 0,000 mm 0,0 UV-I 0 W/m 0,9 C 1,2 C 6,4 km/h (2 Bft) 100,00 %
05.11.2016 06:12 1,2 C 98 % 1010,2 hPa 0,0 l/m 4,1 km/h (1 Bft) O-NO 67 0 min 0,000 mm 0,0 UV-I 0 W/m 0,9 C 1,2 C 6,4 km/h (2 Bft) 100,00 %
05.11.2016 06:14 1,2 C 98 % 1010,2 hPa 0,0 l/m 1,8 km/h (1 Bft) O-NO 66 0 min 0,000 mm 0,0 UV-I 0 W/m 0,9 C 1,2 C 3,2 km/h (1 Bft) 100,00 %
05.11.2016 06:16 1,3 C 99 % 1010,2 hPa 0,0 l/m 2,7 km/h (1 Bft) NO 35 0 min 0,000 mm 0,0 UV-I 0 W/m 1,2 C 1,3 C 6,4 km/h (2 Bft) 97,56 %
05.11.2016 06:18 1,3 C 99 % 1010,2 hPa 0,0 l/m 5,2 km/h (1 Bft) NO 36 0 min 0,000 mm 0,0 UV-I 0 W/m 1,2 C 1,3 C 6,4 km/h (2 Bft) 98,39 %
05.11.2016 06:20 1,3 C 99 % 1010,1 hPa 0,0 l/m 4,9 km/h (1 Bft) O-NO 74 0 min 0,000 mm 0,0 UV-I 0 W/m 1,2 C 1,3 C 6,4 km/h (2 Bft) 100,00 %
05.11.2016 06:22 1,3 C 99 % 1010,0 hPa 0,0 l/m 6,4 km/h (2 Bft) O 84 0 min 0,000 mm 0,0 UV-I 0 W/m 1,2 C 1,3 C 11,3 km/h (2 Bft) 100,00 %
05.11.2016 06:24 1,3 C 99 % 1010,0 hPa 0,0 l/m 7,5 km/h (2 Bft) O-NO 76 0 min 0,000 mm 0,0 UV-I 0 W/m 1,2 C 0,2 C 11,3 km/h (2 Bft) 100,00 %
05.11.2016 06:26 1,3 C 99 % 1010,1 hPa 0,0 l/m 6,3 km/h (2 Bft) NO 52 0 min 0,000 mm 0,0 UV-I 0 W/m 1,2 C 1,3 C 9,7 km/h (2 Bft) 97,56 %
05.11.2016 06:28 1,2 C 98 % 1010,1 hPa 0,0 l/m 5,0 km/h (1 Bft) O-NO 60 0 min 0,000 mm 0,0 UV-I 0 W/m 0,9 C 1,2 C 6,4 km/h (2 Bft) 100,00 %
05.11.2016 06:30 1,2 C 98 % 1010,2 hPa 0,0 l/m 4,7 km/h (1 Bft) O-NO 76 0 min 0,000 mm 0,0 UV-I 0 W/m 0,9 C 1,2 C 6,4 km/h (2 Bft) 96,23 %
05.11.2016 06:32 1,2 C 98 % 1010,2 hPa 0,0 l/m 4,6 km/h (1 Bft) O-NO 64 0 min 0,000 mm 0,0 UV-I 0 W/m 0,9 C 1,2 C 8,0 km/h (2 Bft) 100,00 %
05.11.2016 06:34 1,2 C 98 % 1010,1 hPa 0,0 l/m 4,8 km/h (1 Bft) O 87 0 min 0,000 mm 0,0 UV-I 0 W/m 0,9 C 1,2 C 8,0 km/h (2 Bft) 100,00 %
05.11.2016 06:36 1,2 C 99 % 1010,2 hPa 0,0 l/m 3,1 km/h (1 Bft) O-NO 74 0 min 0,000 mm 0,0 UV-I 0 W/m 1,1 C 1,2 C 4,8 km/h (1 Bft) 98,00 %
05.11.2016 06:38 1,3 C 99 % 1010,2 hPa 0,0 l/m 4,1 km/h (1 Bft) NO 47 0 min 0,000 mm 0,0 UV-I 0 W/m 1,2 C 1,3 C 6,4 km/h (2 Bft) 100,00 %
05.11.2016 06:40 1,2 C 99 % 1010,2 hPa 0,0 l/m 4,6 km/h (1 Bft) NO 48 0 min 0,000 mm 0,0 UV-I 0 W/m 1,1 C 1,2 C 6,4 km/h (2 Bft) 100,00 %
05.11.2016 06:42 1,2 C 98 % 1010,2 hPa 0,0 l/m 5,0 km/h (1 Bft) NO 39 0 min 0,000 mm 0,0 UV-I 0 W/m 0,9 C 1,2 C 6,4 km/h (2 Bft) 98,31 %
05.11.2016 06:44 1,3 C 99 % 1010,1 hPa 0,0 l/m 5,3 km/h (1 Bft) N-NO 22 0 min 0,000 mm 0,0 UV-I 0 W/m 1,2 C 1,3 C 8,0 km/h (2 Bft) 97,56 %
05.11.2016 06:46 1,2 C 98 % 1010,0 hPa 0,0 l/m 7,5 km/h (2 Bft) NO 42 0 min 0,000 mm 0,0 UV-I 0 W/m 0,9 C 0,1 C 11,3 km/h (2 Bft) 100,00 %
05.11.2016 06:48 1,2 C 98 % 1010,1 hPa 0,0 l/m 6,3 km/h (2 Bft) NO 48 0 min 0,000 mm 0,0 UV-I 0 W/m 0,9 C 1,2 C 9,7 km/h (2 Bft) 100,00 %
05.11.2016 06:50 1,2 C 98 % 1010,1 hPa 0,0 l/m 6,1 km/h (2 Bft) O-NO 60 0 min 0,000 mm 0,0 UV-I 0 W/m 0,9 C 1,2 C 11,3 km/h (2 Bft) 100,00 %
05.11.2016 06:52 1,2 C 98 % 1010,1 hPa 0,0 l/m 8,9 km/h (2 Bft) NO 40 0 min 0,000 mm 0,0 UV-I 0 W/m 0,9 C -1,2 C 12,9 km/h (3 Bft) 100,00 %
05.11.2016 06:54 1,1 C 98 % 1010,1 hPa 0,0 l/m 7,4 km/h (2 Bft) NO 38 0 min 0,000 mm 0,0 UV-I 0 W/m 0,8 C 0,1 C 9,7 km/h (2 Bft) 100,00 %
05.11.2016 06:56 1,1 C 98 % 1010,2 hPa 0,0 l/m 7,0 km/h (2 Bft) NO 42 0 min 0,000 mm 0,0 UV-I 0 W/m 0,8 C 0,5 C 9,7 km/h (2 Bft) 100,00 %
05.11.2016 06:58 1,1 C 98 % 1010,2 hPa 0,0 l/m 7,2 km/h (2 Bft) NO 50 0 min 0,000 mm 0,0 UV-I 4 W/m 0,8 C 0,3 C 9,7 km/h (2 Bft) 98,11 %
05.11.2016 07:00 1,1 C 98 % 1010,2 hPa 0,0 l/m 7,2 km/h (2 Bft) O-NO 57 0 min 0,000 mm 0,0 UV-I 5 W/m 0,8 C 0,3 C 9,7 km/h (2 Bft) 96,00 %
05.11.2016 07:02 1,1 C 98 % 1010,1 hPa 0,0 l/m 6,8 km/h (2 Bft) NO 53 0 min 0,000 mm 0,0 UV-I 5 W/m 0,8 C 0,7 C 9,7 km/h (2 Bft) 98,00 %
05.11.2016 07:04 1,1 C 99 % 1010,0 hPa 0,0 l/m 6,6 km/h (2 Bft) O-NO 73 0 min 0,000 mm 0,0 UV-I 6 W/m 1,0 C 0,9 C 9,7 km/h (2 Bft) 97,37 %
05.11.2016 07:06 1,1 C 99 % 1010,0 hPa 0,0 l/m 4,9 km/h (1 Bft) O 84 0 min 0,000 mm 0,0 UV-I 7 W/m 1,0 C 1,1 C 8,0 km/h (2 Bft) 98,11 %
05.11.2016 07:08 1,1 C 99 % 1009,9 hPa 0,0 l/m 5,3 km/h (1 Bft) O-NO 71 0 min 0,000 mm 0,0 UV-I 7 W/m 1,0 C 1,1 C 8,0 km/h (2 Bft) 97,37 %
05.11.2016 07:10 1,1 C 99 % 1010,0 hPa 0,0 l/m 7,2 km/h (2 Bft) O-NO 62 0 min 0,000 mm 0,0 UV-I 7 W/m 1,0 C 0,3 C 11,3 km/h (2 Bft) 98,31 %
05.11.2016 07:12 1,0 C 99 % 1010,1 hPa 0,0 l/m 7,0 km/h (2 Bft) O-NO 71 0 min 0,000 mm 0,0 UV-I 8 W/m 0,9 C 0,4 C 9,7 km/h (2 Bft) 97,56 %
05.11.2016 07:14 1,0 C 99 % 1010,1 hPa 0,0 l/m 3,5 km/h (1 Bft) O-NO 63 0 min 0,000 mm 0,0 UV-I 9 W/m 0,9 C 1,0 C 4,8 km/h (1 Bft) 94,00 %
05.11.2016 07:16 1,0 C 99 % 1010,0 hPa 0,0 l/m 8,4 km/h (2 Bft) NO 50 0 min 0,000 mm 0,0 UV-I 9 W/m 0,9 C -1,0 C 11,3 km/h (2 Bft) 96,00 %
05.11.2016 07:18 1,1 C 99 % 1009,9 hPa 0,0 l/m 7,6 km/h (2 Bft) NO 53 0 min 0,000 mm 0,0 UV-I 11 W/m 1,0 C -0,1 C 11,3 km/h (2 Bft) 97,37 %
05.11.2016 07:20 1,1 C 99 % 1009,9 hPa 0,0 l/m 6,7 km/h (2 Bft) NO 41 0 min 0,000 mm 0,0 UV-I 12 W/m 1,0 C 0,8 C 11,3 km/h (2 Bft) 97,87 %
05.11.2016 07:22 1,1 C 99 % 1009,9 hPa 0,0 l/m 7,5 km/h (2 Bft) NO 40 0 min 0,000 mm 0,0 UV-I 12 W/m 1,0 C -0,0 C 14,5 km/h (3 Bft) 97,87 %
05.11.2016 07:24 1,1 C 98 % 1009,9 hPa 0,0 l/m 6,2 km/h (2 Bft) NO 50 0 min 0,000 mm 0,0 UV-I 13 W/m 0,8 C 1,1 C 8,0 km/h (2 Bft) 96,23 %
05.11.2016 07:26 1,2 C 98 % 1010,0 hPa 0,0 l/m 8,8 km/h (2 Bft) O-NO 59 0 min 0,000 mm 0,0 UV-I 14 W/m 0,9 C -1,1 C 11,3 km/h (2 Bft) 97,56 %
05.11.2016 07:28 1,2 C 98 % 1010,0 hPa 0,0 l/m 5,7 km/h (1 Bft) O-NO 59 0 min 0,000 mm 0,0 UV-I 16 W/m 0,9 C 1,2 C 8,0 km/h (2 Bft) 96,43 %
05.11.2016 07:30 1,1 C 98 % 1010,0 hPa 0,0 l/m 6,3 km/h (2 Bft) O-NO 59 0 min 0,000 mm 0,0 UV-I 16 W/m 0,8 C 1,1 C 12,9 km/h (3 Bft) 94,44 %
05.11.2016 07:32 1,1 C 99 % 1010,0 hPa 0,0 l/m 7,0 km/h (2 Bft) O-NO 69 0 min 0,000 mm 0,0 UV-I 16 W/m 1,0 C 0,5 C 9,7 km/h (2 Bft) 96,00 %
05.11.2016 07:34 1,1 C 99 % 1010,1 hPa 0,0 l/m 4,5 km/h (1 Bft) O-NO 70 0 min 0,000 mm 0,0 UV-I 16 W/m 1,0 C 1,1 C 6,4 km/h (2 Bft) 93,62 %
05.11.2016 07:36 1,1 C 99 % 1010,1 hPa 0,0 l/m 4,8 km/h (1 Bft) O 80 0 min 0,000 mm 0,0 UV-I 18 W/m 1,0 C 1,1 C 8,0 km/h (2 Bft) 96,00 %
05.11.2016 07:38 1,1 C 99 % 1010,1 hPa 0,0 l/m 7,0 km/h (2 Bft) NO 46 0 min 0,000 mm 0,0 UV-I 19 W/m 1,0 C 0,5 C 9,7 km/h (2 Bft) 100,00 %
05.11.2016 07:40 1,1 C 99 % 1010,1 hPa 0,0 l/m 4,7 km/h (1 Bft) O-NO 65 0 min 0,000 mm 0,0 UV-I 19 W/m 1,0 C 1,1 C 6,4 km/h (2 Bft) 100,00 %
05.11.2016 07:42 1,1 C 99 % 1010,2 hPa 0,0 l/m 3,2 km/h (1 Bft) O-NO 65 0 min 0,000 mm 0,0 UV-I 21 W/m 1,0 C 1,1 C 4,8 km/h (1 Bft) 97,56 %
05.11.2016 07:44 1,1 C 99 % 1010,2 hPa 0,0 l/m 1,4 km/h (1 Bft) O-NO 65 0 min 0,000 mm 0,0 UV-I 24 W/m 1,0 C 1,1 C 4,8 km/h (1 Bft) 100,00 %
05.11.2016 07:46 1,1 C 99 % 1010,1 hPa 0,0 l/m 4,1 km/h (1 Bft) O-NO 63 0 min 0,000 mm 0,0 UV-I 25 W/m 1,0 C 1,1 C 6,4 km/h (2 Bft) 98,00 %
05.11.2016 07:48 1,1 C 98 % 1010,0 hPa 0,0 l/m 5,6 km/h (1 Bft) O-NO 64 0 min 0,000 mm 0,0 UV-I 26 W/m 0,8 C 1,1 C 8,0 km/h (2 Bft) 98,00 %
05.11.2016 07:50 1,1 C 98 % 1010,0 hPa 0,0 l/m 6,6 km/h (2 Bft) NO 55 0 min 0,000 mm 0,0 UV-I 26 W/m 0,8 C 0,9 C 9,7 km/h (2 Bft) 100,00 %
05.11.2016 07:52 1,1 C 98 % 1010,0 hPa 0,0 l/m 5,3 km/h (1 Bft) O-NO 72 0 min 0,000 mm 0,0 UV-I 26 W/m 0,8 C 1,1 C 8,0 km/h (2 Bft) 98,11 %
05.11.2016 07:54 1,1 C 99 % 1010,0 hPa 0,0 l/m 4,0 km/h (1 Bft) O-NO 59 0 min 0,000 mm 0,0 UV-I 25 W/m 1,0 C 1,1 C 6,4 km/h (2 Bft) 100,00 %
05.11.2016 07:56 1,1 C 99 % 1009,9 hPa 0,0 l/m 7,3 km/h (2 Bft) NO 55 0 min 0,000 mm 0,0 UV-I 27 W/m 1,0 C 0,2 C 9,7 km/h (2 Bft) 100,00 %
05.11.2016 07:58 1,1 C 99 % 1009,8 hPa 0,0 l/m 8,5 km/h (2 Bft) O-NO 68 0 min 0,000 mm 0,0 UV-I 31 W/m 1,0 C -1,0 C 12,9 km/h (3 Bft) 100,00 %
05.11.2016 08:00 1,1 C 99 % 1009,8 hPa 0,0 l/m 7,6 km/h (2 Bft) NO 50 0 min 0,000 mm 0,0 UV-I 33 W/m 1,0 C -0,1 C 9,7 km/h (2 Bft) 100,00 %
05.11.2016 08:02 1,1 C 99 % 1009,8 hPa 0,0 l/m 6,9 km/h (2 Bft) NO 44 0 min 0,000 mm 0,0 UV-I 34 W/m 1,0 C 0,6 C 8,0 km/h (2 Bft) 98,00 %
05.11.2016 08:04 1,1 C 99 % 1009,8 hPa 0,0 l/m 4,8 km/h (1 Bft) O-NO 74 0 min 0,000 mm 0,0 UV-I 38 W/m 1,0 C 1,1 C 8,0 km/h (2 Bft) 100,00 %
05.11.2016 08:06 1,1 C 99 % 1009,8 hPa 0,0 l/m 6,4 km/h (2 Bft) NO 48 0 min 0,000 mm 0,0 UV-I 40 W/m 1,0 C 1,1 C 9,7 km/h (2 Bft) 100,00 %
05.11.2016 08:08 1,1 C 98 % 1009,8 hPa 0,0 l/m 6,7 km/h (2 Bft) NO 54 0 min 0,000 mm 0,0 UV-I 42 W/m 0,8 C 0,8 C 9,7 km/h (2 Bft) 97,87 %
05.11.2016 08:10 1,1 C 98 % 1009,8 hPa 0,0 l/m 5,5 km/h (1 Bft) O 79 0 min 0,000 mm 0,0 UV-I 45 W/m 0,8 C 1,1 C 8,0 km/h (2 Bft) 100,00 %
05.11.2016 08:12 1,2 C 98 % 1009,7 hPa 0,0 l/m 4,8 km/h (1 Bft) O 90 0 min 0,000 mm 0,0 UV-I 45 W/m 0,9 C 1,2 C 6,4 km/h (2 Bft) 100,00 %
05.11.2016 08:14 1,2 C 98 % 1009,7 hPa 0,0 l/m 6,2 km/h (2 Bft) O 79 0 min 0,000 mm 0,0 UV-I 52 W/m 0,9 C 1,2 C 9,7 km/h (2 Bft) 100,00 %
05.11.2016 08:16 1,2 C 98 % 1009,7 hPa 0,0 l/m 5,3 km/h (1 Bft) NO 53 0 min 0,000 mm 0,0 UV-I 53 W/m 0,9 C 1,2 C 6,4 km/h (2 Bft) 100,00 %
05.11.2016 08:18 1,2 C 98 % 1009,7 hPa 0,0 l/m 4,0 km/h (1 Bft) O-NO 66 0 min 0,000 mm 0,0 UV-I 45 W/m 0,9 C 1,2 C 8,0 km/h (2 Bft) 100,00 %
05.11.2016 08:20 1,2 C 98 % 1009,6 hPa 0,0 l/m 6,6 km/h (2 Bft) NO 53 0 min 0,000 mm 0,0 UV-I 45 W/m 0,9 C 1,0 C 9,7 km/h (2 Bft) 100,00 %
05.11.2016 08:22 1,2 C 99 % 1009,6 hPa 0,0 l/m 5,9 km/h (2 Bft) NO 55 0 min 0,000 mm 0,0 UV-I 43 W/m 1,1 C 1,2 C 9,7 km/h (2 Bft) 97,56 %
05.11.2016 08:24 1,2 C 98 % 1009,5 hPa 0,0 l/m 7,1 km/h (2 Bft) NO 44 0 min 0,000 mm 0,0 UV-I 47 W/m 0,9 C 0,5 C 9,7 km/h (2 Bft) 100,00 %
05.11.2016 08:26 1,2 C 98 % 1009,5 hPa 0,0 l/m 7,4 km/h (2 Bft) NO 53 0 min 0,000 mm 0,0 UV-I 47 W/m 0,9 C 0,2 C 11,3 km/h (2 Bft) 100,00 %
05.11.2016 08:28 1,2 C 98 % 1009,5 hPa 0,0 l/m 9,0 km/h (2 Bft) O-NO 65 0 min 0,000 mm 0,0 UV-I 52 W/m 0,9 C -1,3 C 12,9 km/h (3 Bft) 97,87 %
05.11.2016 08:30 1,2 C 98 % 1009,5 hPa 0,0 l/m 8,2 km/h (2 Bft) O-NO 67 0 min 0,000 mm 0,0 UV-I 53 W/m 0,9 C -0,6 C 12,9 km/h (3 Bft) 97,87 %
05.11.2016 08:32 1,1 C 99 % 1009,5 hPa 0,0 l/m 7,5 km/h (2 Bft) O-NO 66 0 min 0,000 mm 0,0 UV-I 53 W/m 1,0 C -0,0 C 12,9 km/h (3 Bft) 100,00 %
05.11.2016 08:34 1,1 C 98 % 1009,5 hPa 0,0 l/m 10,6 km/h (2 Bft) O-NO 78 0 min 0,000 mm 0,0 UV-I 55 W/m 0,8 C -2,7 C 14,5 km/h (3 Bft) 97,87 %
05.11.2016 08:36 1,1 C 99 % 1009,5 hPa 0,0 l/m 8,2 km/h (2 Bft) O 80 0 min 0,000 mm 0,0 UV-I 46 W/m 1,0 C -0,7 C 12,9 km/h (3 Bft) 100,00 %
05.11.2016 08:38 1,1 C 99 % 1009,5 hPa 0,0 l/m 6,9 km/h (2 Bft) O-NO 61 0 min 0,000 mm 0,0 UV-I 44 W/m 1,0 C 0,6 C 8,0 km/h (2 Bft) 100,00 %
05.11.2016 08:40 1,1 C 98 % 1009,4 hPa 0,0 l/m 7,7 km/h (2 Bft) O-NO 58 0 min 0,000 mm 0,0 UV-I 44 W/m 0,8 C -0,2 C 11,3 km/h (2 Bft) 100,00 %
05.11.2016 08:42 1,2 C 98 % 1009,3 hPa 0,0 l/m 10,2 km/h (2 Bft) O-NO 72 0 min 0,000 mm 0,0 UV-I 52 W/m 0,9 C -2,3 C 14,5 km/h (3 Bft) 100,00 %
05.11.2016 08:44 1,1 C 99 % 1009,3 hPa 0,0 l/m 10,6 km/h (2 Bft) O 87 0 min 0,000 mm 0,0 UV-I 52 W/m 1,0 C -2,7 C 14,5 km/h (3 Bft) 100,00 %
05.11.2016 08:46 1,2 C 98 % 1009,2 hPa 0,0 l/m 8,8 km/h (2 Bft) O-NO 70 0 min 0,000 mm 0,0 UV-I 51 W/m 0,9 C -1,1 C 16,1 km/h (3 Bft) 100,00 %
05.11.2016 08:48 1,2 C 98 % 1009,2 hPa 0,0 l/m 9,9 km/h (2 Bft) O-NO 70 0 min 0,000 mm 0,0 UV-I 50 W/m 0,9 C -2,0 C 14,5 km/h (3 Bft) 100,00 %
05.11.2016 08:50 1,2 C 98 % 1009,2 hPa 0,0 l/m 6,4 km/h (2 Bft) O-NO 71 0 min 0,000 mm 0,0 UV-I 48 W/m 0,9 C 1,2 C 9,7 km/h (2 Bft) 100,00 %
05.11.2016 08:52 1,2 C 98 % 1009,1 hPa 0,0 l/m 7,9 km/h (2 Bft) O 80 0 min 0,000 mm 0,0 UV-I 52 W/m 0,9 C -0,3 C 11,3 km/h (2 Bft) 98,00 %
05.11.2016 08:54 1,3 C 99 % 1009,2 hPa 0,0 l/m 5,3 km/h (1 Bft) O-NO 68 0 min 0,000 mm 0,0 UV-I 51 W/m 1,2 C 1,3 C 8,0 km/h (2 Bft) 100,00 %
05.11.2016 08:56 1,3 C 99 % 1009,1 hPa 0,0 l/m 5,7 km/h (1 Bft) NO 35 0 min 0,000 mm 0,0 UV-I 51 W/m 1,2 C 1,3 C 9,7 km/h (2 Bft) 100,00 %
05.11.2016 08:58 1,3 C 99 % 1009,0 hPa 0,0 l/m 8,8 km/h (2 Bft) O-NO 67 0 min 0,000 mm 0,0 UV-I 53 W/m 1,2 C -1,0 C 12,9 km/h (3 Bft) 100,00 %
05.11.2016 09:00 1,3 C 99 % 1009,0 hPa 0,0 l/m 9,1 km/h (2 Bft) O 79 0 min 0,025 mm 0,0 UV-I 51 W/m 1,2 C -1,3 C 14,5 km/h (3 Bft) 100,00 %
05.11.2016 09:02 1,3 C 99 % 1008,9 hPa 0,0 l/m 9,2 km/h (2 Bft) NO 46 0 min 0,000 mm 0,0 UV-I 53 W/m 1,2 C -1,4 C 14,5 km/h (3 Bft) 100,00 %
05.11.2016 09:04 1,3 C 99 % 1008,8 hPa 0,0 l/m 9,5 km/h (2 Bft) NO 40 0 min 0,000 mm 0,0 UV-I 52 W/m 1,2 C -1,6 C 14,5 km/h (3 Bft) 100,00 %
05.11.2016 09:06 1,3 C 99 % 1008,7 hPa 0,0 l/m 11,1 km/h (2 Bft) NO 42 0 min 0,000 mm 0,0 UV-I 52 W/m 1,2 C -2,9 C 14,5 km/h (3 Bft) 95,45 %
05.11.2016 09:08 1,3 C 99 % 1008,6 hPa 0,0 l/m 10,5 km/h (2 Bft) NO 44 0 min 0,000 mm 0,0 UV-I 52 W/m 1,2 C -2,4 C 16,1 km/h (3 Bft) 96,15 %
05.11.2016 09:10 1,4 C 99 % 1008,5 hPa 0,0 l/m 12,3 km/h (3 Bft) NO 42 0 min 0,000 mm 0,0 UV-I 50 W/m 1,3 C -3,6 C 19,3 km/h (3 Bft) 97,18 %
05.11.2016 09:12 1,4 C 99 % 1008,5 hPa 0,0 l/m 9,6 km/h (2 Bft) O-NO 66 0 min 0,000 mm 0,0 UV-I 48 W/m 1,3 C -1,6 C 14,5 km/h (3 Bft) 97,37 %
05.11.2016 09:14 1,3 C 99 % 1008,5 hPa 0,0 l/m 12,0 km/h (2 Bft) NO 51 0 min 0,000 mm 0,0 UV-I 47 W/m 1,2 C -3,5 C 17,7 km/h (3 Bft) 95,74 %
05.11.2016 09:16 1,3 C 99 % 1008,5 hPa 0,0 l/m 12,8 km/h (3 Bft) O-NO 65 0 min 0,000 mm 0,0 UV-I 55 W/m 1,2 C -4,0 C 17,7 km/h (3 Bft) 96,23 %
05.11.2016 09:18 1,3 C 99 % 1008,4 hPa 0,0 l/m 13,5 km/h (3 Bft) O-NO 69 0 min 0,000 mm 0,0 UV-I 60 W/m 1,2 C -4,5 C 17,7 km/h (3 Bft) 97,73 %
05.11.2016 09:20 1,3 C 99 % 1008,4 hPa 0,0 l/m 13,9 km/h (3 Bft) O 82 0 min 0,000 mm 0,0 UV-I 58 W/m 1,2 C -4,7 C 17,7 km/h (3 Bft) 97,73 %
05.11.2016 09:22 1,3 C 99 % 1008,4 hPa 0,0 l/m 15,3 km/h (3 Bft) O 90 0 min 0,000 mm 0,0 UV-I 60 W/m 1,2 C -5,6 C 19,3 km/h (3 Bft) 98,00 %
05.11.2016 09:24 1,3 C 99 % 1008,5 hPa 0,0 l/m 12,4 km/h (3 Bft) NO 56 0 min 0,000 mm 0,0 UV-I 70 W/m 1,2 C -3,8 C 16,1 km/h (3 Bft) 98,04 %
05.11.2016 09:26 1,3 C 99 % 1008,5 hPa 0,0 l/m 9,2 km/h (2 Bft) O-NO 71 0 min 0,000 mm 0,0 UV-I 72 W/m 1,2 C -1,4 C 14,5 km/h (3 Bft) 97,37 %
05.11.2016 09:28 1,4 C 99 % 1008,5 hPa 0,0 l/m 9,9 km/h (2 Bft) O-NO 71 0 min 0,000 mm 0,0 UV-I 83 W/m 1,3 C -1,8 C 16,1 km/h (3 Bft) 95,74 %
05.11.2016 09:30 1,4 C 99 % 1008,5 hPa 0,0 l/m 10,2 km/h (2 Bft) NO 55 0 min 0,000 mm 0,0 UV-I 79 W/m 1,3 C -2,1 C 14,5 km/h (3 Bft) 97,44 %
05.11.2016 09:32 1,4 C 99 % 1008,5 hPa 0,0 l/m 9,3 km/h (2 Bft) O-NO 67 0 min 0,000 mm 0,0 UV-I 81 W/m 1,3 C -1,3 C 16,1 km/h (3 Bft) 98,25 %
05.11.2016 09:34 1,5 C 99 % 1008,5 hPa 0,0 l/m 8,4 km/h (2 Bft) O 92 0 min 0,000 mm 0,0 UV-I 81 W/m 1,4 C -0,4 C 12,9 km/h (3 Bft) 95,92 %
05.11.2016 09:36 1,5 C 99 % 1008,5 hPa 0,0 l/m 9,8 km/h (2 Bft) O 80 0 min 0,000 mm 0,0 UV-I 71 W/m 1,4 C -1,6 C 12,9 km/h (3 Bft) 95,24 %
05.11.2016 09:38 1,6 C 99 % 1008,4 hPa 0,0 l/m 6,4 km/h (2 Bft) O 97 0 min 0,000 mm 0,0 UV-I 72 W/m 1,5 C 1,6 C 12,9 km/h (3 Bft) 96,43 %
05.11.2016 09:40 1,6 C 99 % 1008,4 hPa 0,0 l/m 7,3 km/h (2 Bft) O 90 0 min 0,000 mm 0,0 UV-I 70 W/m 1,5 C 0,7 C 9,7 km/h (2 Bft) 97,73 %
05.11.2016 09:42 1,6 C 99 % 1008,4 hPa 0,0 l/m 8,6 km/h (2 Bft) O 84 0 min 0,000 mm 0,0 UV-I 74 W/m 1,5 C -0,5 C 14,5 km/h (3 Bft) 100,00 %
05.11.2016 09:44 1,6 C 99 % 1008,4 hPa 0,0 l/m 12,7 km/h (3 Bft) NO 53 0 min 0,000 mm 0,0 UV-I 75 W/m 1,5 C -3,6 C 17,7 km/h (3 Bft) 100,00 %
05.11.2016 09:46 1,6 C 99 % 1008,3 hPa 0,0 l/m 13,1 km/h (3 Bft) O 84 0 min 0,000 mm 0,0 UV-I 80 W/m 1,5 C -3,9 C 17,7 km/h (3 Bft) 98,21 %
05.11.2016 09:48 1,5 C 99 % 1008,3 hPa 0,0 l/m 11,8 km/h (2 Bft) O-NO 63 0 min 0,000 mm 0,0 UV-I 85 W/m 1,4 C -3,1 C 16,1 km/h (3 Bft) 95,45 %
05.11.2016 09:50 1,4 C 99 % 1008,3 hPa 0,0 l/m 11,6 km/h (2 Bft) O-NO 69 0 min 0,000 mm 0,0 UV-I 77 W/m 1,3 C -3,1 C 16,1 km/h (3 Bft) 100,00 %
05.11.2016 09:52 1,4 C 99 % 1008,3 hPa 0,0 l/m 9,4 km/h (2 Bft) NO 51 0 min 0,000 mm 0,0 UV-I 70 W/m 1,3 C -1,4 C 14,5 km/h (3 Bft) 100,00 %
05.11.2016 09:54 1,4 C 99 % 1008,2 hPa 0,0 l/m 8,8 km/h (2 Bft) NO 51 0 min 0,000 mm 0,0 UV-I 66 W/m 1,3 C -0,9 C 12,9 km/h (3 Bft) 97,56 %
05.11.2016 09:56 1,6 C 99 % 1008,2 hPa 0,0 l/m 9,5 km/h (2 Bft) NO 42 0 min 0,000 mm 0,0 UV-I 73 W/m 1,5 C -1,3 C 14,5 km/h (3 Bft) 100,00 %
05.11.2016 09:58 1,6 C 99 % 1008,2 hPa 0,0 l/m 7,5 km/h (2 Bft) O-NO 67 0 min 0,000 mm 0,0 UV-I 72 W/m 1,5 C 0,5 C 12,9 km/h (3 Bft) 98,00 %
05.11.2016 10:00 1,6 C 99 % 1008,2 hPa 0,0 l/m 7,0 km/h (2 Bft) O-NO 65 0 min 0,000 mm 0,0 UV-I 75 W/m 1,5 C 1,0 C 11,3 km/h (2 Bft) 100,00 %
05.11.2016 10:02 1,7 C 99 % 1008,2 hPa 0,0 l/m 7,8 km/h (2 Bft) N 360 0 min 0,026 mm 0,0 UV-I 74 W/m 1,6 C 0,3 C 14,5 km/h (3 Bft) 100,00 %
05.11.2016 10:04 1,7 C 99 % 1008,2 hPa 0,0 l/m 7,1 km/h (2 Bft) NO 42 0 min 0,000 mm 0,0 UV-I 72 W/m 1,6 C 1,0 C 14,5 km/h (3 Bft) 98,11 %
05.11.2016 10:06 1,7 C 99 % 1008,1 hPa 0,0 l/m 9,7 km/h (2 Bft) NO 46 0 min 0,000 mm 0,0 UV-I 71 W/m 1,6 C -1,3 C 14,5 km/h (3 Bft) 97,56 %
05.11.2016 10:08 1,8 C 99 % 1008,1 hPa 0,0 l/m 7,2 km/h (2 Bft) NO 52 0 min 0,000 mm 0,0 UV-I 71 W/m 1,7 C 1,0 C 9,7 km/h (2 Bft) 98,31 %
05.11.2016 10:10 1,8 C 99 % 1008,1 hPa 0,0 l/m 9,3 km/h (2 Bft) NO 55 0 min 0,000 mm 0,0 UV-I 65 W/m 1,7 C -0,9 C 14,5 km/h (3 Bft) 97,56 %
05.11.2016 10:12 1,8 C 99 % 1008,0 hPa 0,0 l/m 10,5 km/h (2 Bft) O-NO 76 0 min 0,000 mm 0,0 UV-I 62 W/m 1,7 C -1,8 C 16,1 km/h (3 Bft) 98,00 %
05.11.2016 10:14 1,8 C 99 % 1007,9 hPa 0,0 l/m 12,3 km/h (3 Bft) NO 51 0 min 0,000 mm 0,0 UV-I 68 W/m 1,7 C -3,1 C 16,1 km/h (3 Bft) 95,74 %
05.11.2016 10:16 1,8 C 99 % 1007,9 hPa 0,0 l/m 11,2 km/h (2 Bft) O-NO 64 0 min 0,000 mm 0,0 UV-I 82 W/m 1,7 C -2,4 C 16,1 km/h (3 Bft) 100,00 %
05.11.2016 10:18 1,8 C 99 % 1007,8 hPa 0,0 l/m 12,5 km/h (3 Bft) O 100 0 min 0,000 mm 0,0 UV-I 86 W/m 1,7 C -3,3 C 16,1 km/h (3 Bft) 100,00 %
05.11.2016 10:20 1,8 C 99 % 1007,7 hPa 0,0 l/m 13,0 km/h (3 Bft) O-NO 71 0 min 0,000 mm 0,0 UV-I 88 W/m 1,7 C -3,6 C 16,1 km/h (3 Bft) 97,37 %
05.11.2016 10:22 1,9 C 99 % 1007,5 hPa 0,0 l/m 13,5 km/h (3 Bft) O-NO 71 0 min 0,000 mm 0,0 UV-I 87 W/m 1,8 C -3,8 C 19,3 km/h (3 Bft) 98,00 %
05.11.2016 10:24 1,8 C 99 % 1007,4 hPa 0,0 l/m 16,8 km/h (3 Bft) O-NO 71 0 min 0,000 mm 0,0 UV-I 87 W/m 1,7 C -5,8 C 19,3 km/h (3 Bft) 100,00 %
05.11.2016 10:26 1,9 C 99 % 1007,3 hPa 0,0 l/m 13,6 km/h (3 Bft) O-NO 59 0 min 0,000 mm 0,0 UV-I 95 W/m 1,8 C -3,9 C 20,9 km/h (4 Bft) 100,00 %
05.11.2016 10:28 1,9 C 99 % 1007,3 hPa 0,0 l/m 14,7 km/h (3 Bft) O-NO 58 0 min 0,000 mm 0,0 UV-I 99 W/m 1,8 C -4,5 C 20,9 km/h (4 Bft) 100,00 %
05.11.2016 10:30 1,9 C 99 % 1007,3 hPa 0,0 l/m 14,9 km/h (3 Bft) O-NO 64 0 min 0,000 mm 0,0 UV-I 104 W/m 1,8 C -4,6 C 19,3 km/h (3 Bft) 100,00 %
05.11.2016 10:32 1,8 C 99 % 1007,3 hPa 0,0 l/m 15,4 km/h (3 Bft) O-NO 67 0 min 0,000 mm 0,0 UV-I 107 W/m 1,7 C -5,0 C 19,3 km/h (3 Bft) 100,00 %
05.11.2016 10:34 1,9 C 99 % 1007,3 hPa 0,0 l/m 13,4 km/h (3 Bft) O-NO 58 0 min 0,000 mm 0,0 UV-I 104 W/m 1,8 C -3,7 C 19,3 km/h (3 Bft) 100,00 %
05.11.2016 10:36 2,0 C 99 % 1007,3 hPa 0,0 l/m 11,7 km/h (2 Bft) NO 46 0 min 0,000 mm 0,0 UV-I 97 W/m 1,9 C -2,5 C 16,1 km/h (3 Bft) 100,00 %
05.11.2016 10:38 2,0 C 99 % 1007,3 hPa 0,0 l/m 11,1 km/h (2 Bft) NO 49 0 min 0,000 mm 0,0 UV-I 100 W/m 1,9 C -2,1 C 16,1 km/h (3 Bft) 100,00 %
05.11.2016 10:40 2,1 C 99 % 1007,2 hPa 0,0 l/m 10,8 km/h (2 Bft) NO 44 0 min 0,000 mm 0,0 UV-I 97 W/m 2,0 C -1,7 C 14,5 km/h (3 Bft) 96,43 %
05.11.2016 10:42 2,1 C 99 % 1007,3 hPa 0,0 l/m 12,3 km/h (3 Bft) NO 55 0 min 0,000 mm 0,0 UV-I 110 W/m 2,0 C -2,8 C 19,3 km/h (3 Bft) 100,00 %
05.11.2016 10:44 2,1 C 99 % 1007,3 hPa 0,0 l/m 14,3 km/h (3 Bft) O-NO 76 0 min 0,000 mm 0,0 UV-I 110 W/m 2,0 C -4,0 C 19,3 km/h (3 Bft) 97,87 %
05.11.2016 10:46 2,1 C 99 % 1007,3 hPa 0,0 l/m 13,2 km/h (3 Bft) O 90 0 min 0,000 mm 0,0 UV-I 105 W/m 2,0 C -3,4 C 19,3 km/h (3 Bft) 100,00 %
05.11.2016 10:48 2,2 C 99 % 1007,3 hPa 0,0 l/m 10,9 km/h (2 Bft) O 79 0 min 0,000 mm 0,0 UV-I 92 W/m 2,1 C -1,7 C 17,7 km/h (3 Bft) 98,00 %
05.11.2016 10:50 2,1 C 99 % 1007,3 hPa 0,0 l/m 9,1 km/h (2 Bft) NO 54 0 min 0,000 mm 0,0 UV-I 85 W/m 2,0 C -0,4 C 14,5 km/h (3 Bft) 100,00 %
05.11.2016 10:52 2,1 C 99 % 1007,2 hPa 0,0 l/m 9,0 km/h (2 Bft) O-NO 72 0 min 0,000 mm 0,0 UV-I 80 W/m 2,0 C -0,3 C 14,5 km/h (3 Bft) 97,87 %
05.11.2016 10:54 2,2 C 99 % 1007,1 hPa 0,0 l/m 11,3 km/h (2 Bft) O-NO 64 0 min 0,000 mm 0,0 UV-I 77 W/m 2,1 C -2,0 C 16,1 km/h (3 Bft) 100,00 %
05.11.2016 10:55 2,2 C 99 % 1007,1 hPa 0,0 l/m 11,3 km/h (2 Bft) NO 45 0 min 0,000 mm 0,0 UV-I 79 W/m 2,1 C -2,0 C 16,1 km/h (3 Bft) 98,25 %
05.11.2016 11:00 2,1 C 99 % 1006,9 hPa 0,0 l/m 10,9 km/h (2 Bft) O-NO 71 0 min 0,025 mm 0,0 UV-I 84 W/m 2,0 C -1,8 C 16,1 km/h (3 Bft) 100,00 %
05.11.2016 11:02 2,1 C 99 % 1006,8 hPa 0,0 l/m 9,8 km/h (2 Bft) NO 41 0 min 0,000 mm 0,0 UV-I 84 W/m 2,0 C -1,0 C 16,1 km/h (3 Bft) 97,87 %
05.11.2016 11:04 2,2 C 99 % 1006,7 hPa 0,0 l/m 10,1 km/h (2 Bft) O-NO 66 0 min 0,000 mm 0,0 UV-I 81 W/m 2,1 C -1,1 C 17,7 km/h (3 Bft) 98,21 %
05.11.2016 11:06 2,2 C 99 % 1006,8 hPa 0,0 l/m 11,1 km/h (2 Bft) O-NO 74 0 min 0,000 mm 0,0 UV-I 82 W/m 2,1 C -1,8 C 16,1 km/h (3 Bft) 97,56 %
05.11.2016 11:08 2,2 C 99 % 1006,8 hPa 0,0 l/m 9,6 km/h (2 Bft) NO 50 0 min 0,000 mm 0,0 UV-I 97 W/m 2,1 C -0,7 C 16,1 km/h (3 Bft) 98,11 %
05.11.2016 11:10 2,2 C 99 % 1006,8 hPa 0,0 l/m 14,1 km/h (3 Bft) NO 50 0 min 0,000 mm 0,0 UV-I 97 W/m 2,1 C -3,8 C 17,7 km/h (3 Bft) 95,45 %
05.11.2016 11:12 2,1 C 99 % 1006,7 hPa 0,0 l/m 14,4 km/h (3 Bft) O-NO 61 0 min 0,000 mm 0,0 UV-I 99 W/m 2,0 C -4,1 C 19,3 km/h (3 Bft) 98,00 %
05.11.2016 11:14 2,1 C 99 % 1006,6 hPa 0,0 l/m 14,4 km/h (3 Bft) NO 35 0 min 0,000 mm 0,0 UV-I 99 W/m 2,0 C -4,1 C 19,3 km/h (3 Bft) 97,44 %
05.11.2016 11:16 2,2 C 99 % 1006,5 hPa 0,0 l/m 11,3 km/h (2 Bft) NO 43 0 min 0,000 mm 0,0 UV-I 115 W/m 2,1 C -2,0 C 17,7 km/h (3 Bft) 96,00 %
05.11.2016 11:18 2,2 C 99 % 1006,4 hPa 0,0 l/m 12,3 km/h (3 Bft) O-NO 64 0 min 0,000 mm 0,0 UV-I 100 W/m 2,1 C -2,7 C 16,1 km/h (3 Bft) 94,23 %
05.11.2016 11:20 2,2 C 99 % 1006,3 hPa 0,0 l/m 12,3 km/h (3 Bft) NO 43 0 min 0,000 mm 0,0 UV-I 95 W/m 2,1 C -2,7 C 16,1 km/h (3 Bft) 97,44 %
05.11.2016 11:22 2,2 C 99 % 1006,1 hPa 0,0 l/m 16,2 km/h (3 Bft) O-NO 75 0 min 0,000 mm 0,2 UV-I 109 W/m 2,1 C -5,0 C 20,9 km/h (4 Bft) 95,45 %
05.11.2016 11:24 2,2 C 99 % 1006,1 hPa 0,0 l/m 17,6 km/h (3 Bft) O-NO 61 0 min 0,000 mm 0,3 UV-I 116 W/m 2,1 C -5,7 C 22,5 km/h (4 Bft) 98,21 %
05.11.2016 11:26 2,2 C 99 % 1006,1 hPa 0,0 l/m 12,3 km/h (3 Bft) O 82 0 min 0,000 mm 0,2 UV-I 112 W/m 2,1 C -2,7 C 19,3 km/h (3 Bft) 97,37 %
05.11.2016 11:28 2,3 C 99 % 1006,1 hPa 0,0 l/m 11,1 km/h (2 Bft) O-NO 71 0 min 0,000 mm 0,0 UV-I 99 W/m 2,2 C -1,7 C 16,1 km/h (3 Bft) 98,11 %
05.11.2016 11:30 2,4 C 99 % 1006,1 hPa 0,0 l/m 11,1 km/h (2 Bft) O-NO 73 0 min 0,000 mm 0,0 UV-I 89 W/m 2,3 C -1,6 C 16,1 km/h (3 Bft) 97,87 %
05.11.2016 11:32 2,4 C 99 % 1006,1 hPa 0,0 l/m 7,9 km/h (2 Bft) O-NO 67 0 min 0,000 mm 0,0 UV-I 92 W/m 2,3 C 1,0 C 16,1 km/h (3 Bft) 97,87 %
05.11.2016 11:34 2,5 C 99 % 1006,0 hPa 0,0 l/m 13,3 km/h (3 Bft) O 89 0 min 0,000 mm 0,0 UV-I 84 W/m 2,4 C -3,0 C 17,7 km/h (3 Bft) 95,12 %
05.11.2016 11:36 2,4 C 99 % 1006,0 hPa 0,0 l/m 13,2 km/h (3 Bft) O-NO 65 0 min 0,000 mm 0,0 UV-I 79 W/m 2,3 C -3,0 C 19,3 km/h (3 Bft) 96,23 %
05.11.2016 11:38 2,4 C 99 % 1006,0 hPa 0,0 l/m 8,7 km/h (2 Bft) N-NO 25 0 min 0,000 mm 0,0 UV-I 76 W/m 2,3 C 0,3 C 14,5 km/h (3 Bft) 97,56 %
05.11.2016 11:40 2,5 C 99 % 1006,0 hPa 0,0 l/m 7,5 km/h (2 Bft) O-NO 67 0 min 0,000 mm 0,0 UV-I 68 W/m 2,4 C 1,4 C 11,3 km/h (2 Bft) 98,11 %
05.11.2016 11:42 2,5 C 99 % 1005,9 hPa 0,0 l/m 8,5 km/h (2 Bft) O-NO 66 0 min 0,000 mm 0,0 UV-I 74 W/m 2,4 C 0,5 C 14,5 km/h (3 Bft) 98,00 %
05.11.2016 11:44 2,5 C 99 % 1005,8 hPa 0,0 l/m 8,1 km/h (2 Bft) NO 51 0 min 0,000 mm 0,0 UV-I 69 W/m 2,4 C 0,9 C 12,9 km/h (3 Bft) 97,87 %
05.11.2016 11:46 2,6 C 99 % 1005,7 hPa 0,0 l/m 9,7 km/h (2 Bft) NO 47 0 min 0,000 mm 0,0 UV-I 69 W/m 2,5 C -0,3 C 14,5 km/h (3 Bft) 100,00 %
05.11.2016 11:48 2,5 C 99 % 1005,7 hPa 0,0 l/m 8,6 km/h (2 Bft) NO 56 0 min 0,000 mm 0,0 UV-I 68 W/m 2,4 C 0,4 C 16,1 km/h (3 Bft) 100,00 %
05.11.2016 11:50 2,5 C 99 % 1005,7 hPa 0,0 l/m 8,9 km/h (2 Bft) NO 53 0 min 0,000 mm 0,0 UV-I 74 W/m 2,4 C 0,2 C 12,9 km/h (3 Bft) 100,00 %
05.11.2016 11:52 2,5 C 99 % 1005,7 hPa 0,0 l/m 9,0 km/h (2 Bft) O-NO 62 0 min 0,000 mm 0,0 UV-I 85 W/m 2,4 C 0,1 C 12,9 km/h (3 Bft) 98,00 %
05.11.2016 11:54 2,5 C 99 % 1005,7 hPa 0,0 l/m 11,0 km/h (2 Bft) NO 51 0 min 0,000 mm 0,0 UV-I 82 W/m 2,4 C -1,4 C 16,1 km/h (3 Bft) 97,44 %
05.11.2016 11:56 2,5 C 99 % 1005,7 hPa 0,0 l/m 12,0 km/h (2 Bft) NO 55 0 min 0,000 mm 0,0 UV-I 94 W/m 2,4 C -2,1 C 17,7 km/h (3 Bft) 100,00 %
05.11.2016 11:58 2,5 C 99 % 1005,6 hPa 0,0 l/m 13,2 km/h (3 Bft) O-NO 58 0 min 0,000 mm 0,0 UV-I 94 W/m 2,4 C -2,9 C 19,3 km/h (3 Bft) 100,00 %
05.11.2016 12:00 2,4 C 99 % 1005,6 hPa 0,0 l/m 15,2 km/h (3 Bft) O-NO 67 0 min 0,026 mm 0,0 UV-I 84 W/m 2,3 C -4,2 C 20,9 km/h (4 Bft) 100,00 %
05.11.2016 12:02 2,4 C 99 % 1005,7 hPa 0,0 l/m 14,9 km/h (3 Bft) O-NO 58 0 min 0,000 mm 0,0 UV-I 89 W/m 2,3 C -4,0 C 19,3 km/h (3 Bft) 100,00 %
05.11.2016 12:04 2,3 C 99 % 1005,6 hPa 0,0 l/m 12,6 km/h (3 Bft) O-NO 57 0 min 0,000 mm 0,0 UV-I 92 W/m 2,2 C -2,7 C 17,7 km/h (3 Bft) 100,00 %
05.11.2016 12:06 2,3 C 99 % 1005,6 hPa 0,0 l/m 11,5 km/h (2 Bft) O 82 0 min 0,000 mm 0,0 UV-I 78 W/m 2,2 C -2,0 C 17,7 km/h (3 Bft) 100,00 %
05.11.2016 12:08 2,3 C 99 % 1005,5 hPa 0,0 l/m 12,1 km/h (2 Bft) O-NO 61 0 min 0,000 mm 0,0 UV-I 83 W/m 2,2 C -2,4 C 16,1 km/h (3 Bft) 100,00 %
05.11.2016 12:10 2,3 C 99 % 1005,5 hPa 0,0 l/m 13,4 km/h (3 Bft) O-NO 68 0 min 0,000 mm 0,0 UV-I 93 W/m 2,2 C -3,3 C 19,3 km/h (3 Bft) 100,00 %
05.11.2016 12:12 2,3 C 99 % 1005,5 hPa 0,0 l/m 10,7 km/h (2 Bft) O-NO 65 0 min 0,000 mm 0,0 UV-I 101 W/m 2,2 C -1,4 C 16,1 km/h (3 Bft) 100,00 %
05.11.2016 12:14 2,3 C 99 % 1005,5 hPa 0,0 l/m 11,7 km/h (2 Bft) NO 46 0 min 0,000 mm 0,0 UV-I 107 W/m 2,2 C -2,1 C 17,7 km/h (3 Bft) 97,56 %
05.11.2016 12:16 2,4 C 99 % 1005,5 hPa 0,0 l/m 13,1 km/h (3 Bft) O-NO 70 0 min 0,000 mm 0,0 UV-I 108 W/m 2,3 C -3,0 C 17,7 km/h (3 Bft) 100,00 %
05.11.2016 12:20 2,4 C 99 % 1005,4 hPa 0,0 l/m 9,2 km/h (2 Bft) O 80 0 min 0,000 mm 0,0 UV-I 106 W/m 2,3 C -0,2 C 12,9 km/h (3 Bft) 100,00 %
05.11.2016 12:23 2,4 C 99 % 1005,4 hPa 0,0 l/m 11,5 km/h (2 Bft) O-NO 67 0 min 0,000 mm 0,0 UV-I 105 W/m 2,3 C -1,9 C 17,7 km/h (3 Bft) 100,00 %
05.11.2016 12:24 2,4 C 99 % 1005,4 hPa 0,0 l/m 9,9 km/h (2 Bft) O-NO 71 0 min 0,000 mm 0,0 UV-I 106 W/m 2,3 C -0,7 C 12,9 km/h (3 Bft) 100,00 %
05.11.2016 12:26 2,6 C 99 % 1005,3 hPa 0,0 l/m 11,4 km/h (2 Bft) O 80 0 min 0,000 mm 0,0 UV-I 104 W/m 2,5 C -1,6 C 16,1 km/h (3 Bft) 100,00 %
05.11.2016 12:28 2,6 C 99 % 1005,2 hPa 0,0 l/m 9,4 km/h (2 Bft) O-NO 65 0 min 0,000 mm 0,0 UV-I 98 W/m 2,5 C -0,1 C 14,5 km/h (3 Bft) 97,87 %
05.11.2016 12:30 2,6 C 99 % 1005,2 hPa 0,0 l/m 9,5 km/h (2 Bft) NO 56 0 min 0,000 mm 0,0 UV-I 96 W/m 2,5 C -0,2 C 14,5 km/h (3 Bft) 97,37 %
05.11.2016 12:32 2,6 C 99 % 1005,1 hPa 0,0 l/m 9,2 km/h (2 Bft) O-NO 76 0 min 0,000 mm 0,0 UV-I 93 W/m 2,5 C 0,1 C 14,5 km/h (3 Bft) 96,23 %
05.11.2016 12:34 2,6 C 99 % 1005,0 hPa 0,0 l/m 12,5 km/h (3 Bft) O 80 0 min 0,000 mm 0,0 UV-I 97 W/m 2,5 C -2,3 C 16,1 km/h (3 Bft) 100,00 %
05.11.2016 12:36 2,7 C 99 % 1005,0 hPa 0,0 l/m 9,0 km/h (2 Bft) O-NO 63 0 min 0,000 mm 0,0 UV-I 98 W/m 2,6 C 0,3 C 12,9 km/h (3 Bft) 97,56 %
05.11.2016 12:38 2,8 C 99 % 1004,9 hPa 0,0 l/m 11,7 km/h (2 Bft) O-NO 69 0 min 0,000 mm 0,0 UV-I 104 W/m 2,7 C -1,6 C 16,1 km/h (3 Bft) 96,55 %
05.11.2016 12:40 2,7 C 99 % 1005,0 hPa 0,0 l/m 11,1 km/h (2 Bft) O 97 0 min 0,000 mm 0,0 UV-I 118 W/m 2,6 C -1,3 C 14,5 km/h (3 Bft) 100,00 %
05.11.2016 12:42 2,7 C 99 % 1005,0 hPa 0,0 l/m 11,7 km/h (2 Bft) O-NO 69 0 min 0,000 mm 0,0 UV-I 112 W/m 2,6 C -1,7 C 16,1 km/h (3 Bft) 100,00 %
05.11.2016 12:44 2,7 C 99 % 1005,0 hPa 0,0 l/m 10,2 km/h (2 Bft) O-NO 77 0 min 0,000 mm 0,0 UV-I 100 W/m 2,6 C -0,6 C 16,1 km/h (3 Bft) 100,00 %
05.11.2016 12:46 2,7 C 99 % 1005,0 hPa 0,0 l/m 9,4 km/h (2 Bft) O 81 0 min 0,000 mm 0,0 UV-I 97 W/m 2,6 C 0,0 C 14,5 km/h (3 Bft) 98,68 %
05.11.2016 12:48 2,8 C 99 % 1004,9 hPa 0,0 l/m 9,7 km/h (2 Bft) O-NO 70 0 min 0,000 mm 0,0 UV-I 101 W/m 2,7 C -0,1 C 14,5 km/h (3 Bft) 100,00 %
05.11.2016 12:50 2,7 C 99 % 1004,7 hPa 0,0 l/m 9,7 km/h (2 Bft) O-NO 65 0 min 0,000 mm 0,0 UV-I 99 W/m 2,6 C -0,2 C 14,5 km/h (3 Bft) 100,00 %
05.11.2016 12:52 2,7 C 99 % 1004,6 hPa 0,0 l/m 11,1 km/h (2 Bft) NO 47 0 min 0,000 mm 0,0 UV-I 98 W/m 2,6 C -1,3 C 16,1 km/h (3 Bft) 100,00 %
05.11.2016 12:54 2,8 C 99 % 1004,5 hPa 0,0 l/m 14,1 km/h (3 Bft) O-NO 63 0 min 0,000 mm 0,0 UV-I 108 W/m 2,7 C -3,1 C 17,7 km/h (3 Bft) 100,00 %
05.11.2016 12:56 2,8 C 99 % 1004,5 hPa 0,0 l/m 13,2 km/h (3 Bft) NO 54 0 min 0,000 mm 0,0 UV-I 126 W/m 2,7 C -2,5 C 17,7 km/h (3 Bft) 98,11 %
05.11.2016 12:59 2,8 C 99 % 1004,3 hPa 0,0 l/m 13,6 km/h (3 Bft) O 96 0 min 0,000 mm 0,0 UV-I 145 W/m 2,7 C -2,8 C 19,3 km/h (3 Bft) 97,30 %
05.11.2016 13:00 2,8 C 99 % 1004,3 hPa 0,0 l/m 11,9 km/h (2 Bft) O 82 0 min 0,000 mm 0,5 UV-I 151 W/m 2,7 C -1,7 C 14,5 km/h (3 Bft) 100,00 %
05.11.2016 13:02 2,8 C 99 % 1004,3 hPa 0,0 l/m 14,7 km/h (3 Bft) O-NO 69 0 min 0,050 mm 0,5 UV-I 138 W/m 2,7 C -3,4 C 20,9 km/h (4 Bft) 100,00 %
05.11.2016 13:04 2,9 C 99 % 1004,2 hPa 0,0 l/m 14,1 km/h (3 Bft) O-NO 74 0 min 0,000 mm 0,5 UV-I 135 W/m 2,8 C -3,0 C 20,9 km/h (4 Bft) 97,87 %
05.11.2016 13:06 2,9 C 99 % 1004,1 hPa 0,0 l/m 13,9 km/h (3 Bft) O 79 0 min 0,000 mm 0,0 UV-I 118 W/m 2,8 C -2,8 C 22,5 km/h (4 Bft) 100,00 %
05.11.2016 13:08 2,9 C 99 % 1004,1 hPa 0,0 l/m 11,8 km/h (2 Bft) O-NO 57 0 min 0,000 mm 0,0 UV-I 119 W/m 2,8 C -1,5 C 17,7 km/h (3 Bft) 100,00 %
05.11.2016 13:10 3,0 C 99 % 1004,1 hPa 0,0 l/m 14,8 km/h (3 Bft) O-NO 71 0 min 0,000 mm 0,0 UV-I 129 W/m 2,9 C -3,2 C 19,3 km/h (3 Bft) 98,21 %
05.11.2016 13:12 3,1 C 99 % 1004,0 hPa 0,0 l/m 15,2 km/h (3 Bft) O-NO 59 0 min 0,000 mm 0,1 UV-I 140 W/m 3,0 C -3,3 C 20,9 km/h (4 Bft) 97,56 %
05.11.2016 13:14 3,1 C 99 % 1003,9 hPa 0,0 l/m 11,9 km/h (2 Bft) O-NO 74 0 min 0,000 mm 0,5 UV-I 142 W/m 3,0 C -1,4 C 17,7 km/h (3 Bft) 97,73 %
05.11.2016 13:16 3,1 C 99 % 1004,0 hPa 0,0 l/m 16,0 km/h (3 Bft) O-NO 68 0 min 0,000 mm 0,2 UV-I 131 W/m 3,0 C -3,8 C 20,9 km/h (4 Bft) 98,00 %
05.11.2016 13:18 3,2 C 99 % 1004,0 hPa 0,0 l/m 7,9 km/h (2 Bft) O 80 0 min 0,000 mm 0,0 UV-I 131 W/m 3,1 C 1,8 C 16,1 km/h (3 Bft) 95,74 %
05.11.2016 13:20 3,2 C 99 % 1004,0 hPa 0,0 l/m 13,7 km/h (3 Bft) O-NO 68 0 min 0,000 mm 0,0 UV-I 140 W/m 3,1 C -2,4 C 22,5 km/h (4 Bft) 92,45 %
05.11.2016 13:22 3,2 C 99 % 1004,0 hPa 0,0 l/m 12,6 km/h (3 Bft) O-NO 69 0 min 0,000 mm 0,5 UV-I 152 W/m 3,1 C -1,7 C 17,7 km/h (3 Bft) 97,37 %
05.11.2016 13:24 3,3 C 99 % 1003,8 hPa 0,0 l/m 13,2 km/h (3 Bft) O-NO 78 0 min 0,000 mm 0,5 UV-I 140 W/m 3,2 C -2,0 C 22,5 km/h (4 Bft) 98,00 %
05.11.2016 13:26 3,3 C 99 % 1003,8 hPa 0,0 l/m 15,1 km/h (3 Bft) O-NO 67 0 min 0,000 mm 0,1 UV-I 123 W/m 3,2 C -3,0 C 19,3 km/h (3 Bft) 97,37 %
05.11.2016 13:28 3,3 C 99 % 1003,7 hPa 0,0 l/m 11,8 km/h (2 Bft) O-NO 66 0 min 0,000 mm 0,0 UV-I 120 W/m 3,2 C -1,1 C 16,1 km/h (3 Bft) 98,21 %
05.11.2016 13:30 3,3 C 99 % 1003,7 hPa 0,0 l/m 12,5 km/h (3 Bft) O-NO 76 0 min 0,000 mm 0,0 UV-I 112 W/m 3,2 C -1,5 C 19,3 km/h (3 Bft) 98,00 %
05.11.2016 13:32 3,3 C 99 % 1003,6 hPa 0,0 l/m 11,6 km/h (2 Bft) NO 50 0 min 0,000 mm 0,0 UV-I 104 W/m 3,2 C -0,9 C 16,1 km/h (3 Bft) 97,37 %
05.11.2016 13:34 3,3 C 99 % 1003,5 hPa 0,0 l/m 13,5 km/h (3 Bft) O-NO 78 0 min 0,000 mm 0,0 UV-I 103 W/m 3,2 C -2,1 C 17,7 km/h (3 Bft) 96,23 %
05.11.2016 13:36 3,4 C 99 % 1003,4 hPa 0,0 l/m 11,8 km/h (2 Bft) NO 44 0 min 0,000 mm 0,0 UV-I 117 W/m 3,3 C -1,0 C 19,3 km/h (3 Bft) 96,00 %
05.11.2016 13:38 3,4 C 99 % 1003,5 hPa 0,0 l/m 14,5 km/h (3 Bft) O-NO 74 0 min 0,000 mm 0,0 UV-I 131 W/m 3,3 C -2,6 C 20,9 km/h (4 Bft) 100,00 %
05.11.2016 13:40 3,4 C 99 % 1003,4 hPa 0,0 l/m 15,5 km/h (3 Bft) O-NO 76 0 min 0,000 mm 0,0 UV-I 132 W/m 3,3 C -3,1 C 19,3 km/h (3 Bft) 98,11 %
05.11.2016 13:42 3,5 C 99 % 1003,3 hPa 0,0 l/m 11,7 km/h (2 Bft) O-NO 71 0 min 0,000 mm 0,0 UV-I 118 W/m 3,4 C -0,8 C 17,7 km/h (3 Bft) 98,36 %
05.11.2016 13:44 3,5 C 99 % 1003,3 hPa 0,0 l/m 11,6 km/h (2 Bft) O-NO 63 0 min 0,000 mm 0,0 UV-I 118 W/m 3,4 C -0,7 C 16,1 km/h (3 Bft) 100,00 %
05.11.2016 13:46 3,5 C 99 % 1003,3 hPa 0,0 l/m 13,4 km/h (3 Bft) O-NO 57 0 min 0,000 mm 0,0 UV-I 124 W/m 3,4 C -1,8 C 19,3 km/h (3 Bft) 98,00 %
05.11.2016 13:48 3,6 C 99 % 1003,1 hPa 0,0 l/m 13,1 km/h (3 Bft) NO 47 0 min 0,000 mm 0,0 UV-I 140 W/m 3,5 C -1,5 C 16,1 km/h (3 Bft) 100,00 %
05.11.2016 13:50 3,6 C 98 % 1003,0 hPa 0,0 l/m 12,9 km/h (3 Bft) O-NO 65 0 min 0,000 mm 0,0 UV-I 146 W/m 3,3 C -1,4 C 17,7 km/h (3 Bft) 96,23 %
05.11.2016 13:52 3,6 C 98 % 1003,0 hPa 0,0 l/m 14,8 km/h (3 Bft) O 86 0 min 0,000 mm 0,0 UV-I 127 W/m 3,3 C -2,5 C 20,9 km/h (4 Bft) 100,00 %
05.11.2016 13:54 3,6 C 98 % 1003,0 hPa 0,0 l/m 11,6 km/h (2 Bft) O-NO 63 0 min 0,000 mm 0,0 UV-I 117 W/m 3,3 C -0,6 C 17,7 km/h (3 Bft) 100,00 %
05.11.2016 13:56 3,6 C 98 % 1003,1 hPa 0,0 l/m 15,4 km/h (3 Bft) NO 54 0 min 0,000 mm 0,0 UV-I 109 W/m 3,3 C -2,8 C 19,3 km/h (3 Bft) 100,00 %
05.11.2016 13:58 3,6 C 98 % 1003,0 hPa 0,0 l/m 13,3 km/h (3 Bft) O-NO 60 0 min 0,000 mm 0,0 UV-I 107 W/m 3,3 C -1,7 C 17,7 km/h (3 Bft) 100,00 %
05.11.2016 14:00 3,6 C 98 % 1003,0 hPa 0,0 l/m 13,3 km/h (3 Bft) O-NO 67 0 min 0,000 mm 0,0 UV-I 99 W/m 3,3 C -1,7 C 17,7 km/h (3 Bft) 100,00 %
05.11.2016 14:02 3,6 C 98 % 1002,9 hPa 0,0 l/m 10,1 km/h (2 Bft) NO 51 0 min 0,051 mm 0,0 UV-I 87 W/m 3,3 C 0,5 C 14,5 km/h (3 Bft) 100,00 %
05.11.2016 14:04 3,6 C 98 % 1002,9 hPa 0,0 l/m 11,7 km/h (2 Bft) O 84 0 min 0,000 mm 0,0 UV-I 74 W/m 3,3 C -0,7 C 17,7 km/h (3 Bft) 100,00 %
05.11.2016 14:06 3,7 C 98 % 1002,8 hPa 0,0 l/m 9,0 km/h (2 Bft) O-NO 59 0 min 0,000 mm 0,0 UV-I 75 W/m 3,4 C 1,4 C 16,1 km/h (3 Bft) 98,31 %
05.11.2016 14:08 3,7 C 98 % 1002,9 hPa 0,0 l/m 10,8 km/h (2 Bft) O 90 0 min 0,000 mm 0,0 UV-I 76 W/m 3,4 C 0,1 C 16,1 km/h (3 Bft) 100,00 %
05.11.2016 14:10 3,7 C 98 % 1002,9 hPa 0,0 l/m 13,4 km/h (3 Bft) O 85 0 min 0,000 mm 0,0 UV-I 77 W/m 3,4 C -1,6 C 19,3 km/h (3 Bft) 100,00 %
05.11.2016 14:12 3,7 C 98 % 1002,8 hPa 0,0 l/m 13,5 km/h (3 Bft) O-NO 77 0 min 0,000 mm 0,0 UV-I 71 W/m 3,4 C -1,7 C 17,7 km/h (3 Bft) 98,31 %
05.11.2016 14:14 3,6 C 98 % 1002,8 hPa 0,0 l/m 12,7 km/h (3 Bft) O-NO 74 0 min 0,000 mm 0,0 UV-I 62 W/m 3,3 C -1,3 C 16,1 km/h (3 Bft) 100,00 %
05.11.2016 14:16 3,6 C 98 % 1002,7 hPa 0,0 l/m 11,8 km/h (2 Bft) O 83 0 min 0,000 mm 0,0 UV-I 63 W/m 3,3 C -0,7 C 17,7 km/h (3 Bft) 100,00 %
05.11.2016 14:18 3,6 C 98 % 1002,7 hPa 0,0 l/m 14,7 km/h (3 Bft) O 93 0 min 0,000 mm 0,0 UV-I 64 W/m 3,3 C -2,5 C 17,7 km/h (3 Bft) 100,00 %
05.11.2016 14:20 3,6 C 98 % 1002,6 hPa 0,0 l/m 14,9 km/h (3 Bft) O-NO 58 0 min 0,000 mm 0,0 UV-I 63 W/m 3,3 C -2,6 C 17,7 km/h (3 Bft) 100,00 %
05.11.2016 14:22 3,6 C 98 % 1002,5 hPa 0,0 l/m 12,4 km/h (3 Bft) O 92 0 min 0,000 mm 0,0 UV-I 56 W/m 3,3 C -1,1 C 19,3 km/h (3 Bft) 100,00 %
05.11.2016 14:24 3,5 C 98 % 1002,4 hPa 0,0 l/m 13,2 km/h (3 Bft) O-NO 63 0 min 0,000 mm 0,0 UV-I 53 W/m 3,2 C -1,7 C 19,3 km/h (3 Bft) 100,00 %
05.11.2016 14:26 3,5 C 98 % 1002,4 hPa 0,0 l/m 11,1 km/h (2 Bft) O-NO 75 0 min 0,000 mm 0,0 UV-I 55 W/m 3,2 C -0,4 C 16,1 km/h (3 Bft) 96,00 %
05.11.2016 14:28 3,6 C 98 % 1002,4 hPa 0,0 l/m 10,2 km/h (2 Bft) NO 49 0 min 0,000 mm 0,0 UV-I 56 W/m 3,3 C 0,4 C 16,1 km/h (3 Bft) 97,56 %
05.11.2016 14:30 3,6 C 97 % 1002,3 hPa 0,0 l/m 12,2 km/h (2 Bft) NO 53 0 min 0,000 mm 0,0 UV-I 58 W/m 3,2 C -1,0 C 17,7 km/h (3 Bft) 97,87 %
05.11.2016 14:32 3,6 C 97 % 1002,3 hPa 0,0 l/m 13,1 km/h (3 Bft) NO 46 0 min 0,000 mm 0,0 UV-I 63 W/m 3,2 C -1,5 C 19,3 km/h (3 Bft) 100,00 %
05.11.2016 14:34 3,5 C 97 % 1002,2 hPa 0,0 l/m 17,0 km/h (3 Bft) O-NO 67 0 min 0,000 mm 0,0 UV-I 75 W/m 3,1 C -3,8 C 20,9 km/h (4 Bft) 100,00 %
05.11.2016 14:36 3,5 C 97 % 1002,2 hPa 0,0 l/m 13,4 km/h (3 Bft) NO 50 0 min 0,000 mm 0,0 UV-I 101 W/m 3,1 C -1,8 C 20,9 km/h (4 Bft) 100,00 %
05.11.2016 14:38 3,5 C 97 % 1002,1 hPa 0,0 l/m 16,8 km/h (3 Bft) O-NO 73 0 min 0,000 mm 0,0 UV-I 110 W/m 3,1 C -3,7 C 22,5 km/h (4 Bft) 96,00 %
05.11.2016 14:40 3,6 C 97 % 1002,2 hPa 0,0 l/m 15,2 km/h (3 Bft) O-NO 69 0 min 0,000 mm 0,0 UV-I 109 W/m 3,2 C -2,7 C 20,9 km/h (4 Bft) 100,00 %
05.11.2016 14:42 3,6 C 97 % 1002,2 hPa 0,0 l/m 14,0 km/h (3 Bft) O-NO 58 0 min 0,000 mm 0,0 UV-I 98 W/m 3,2 C -2,1 C 19,3 km/h (3 Bft) 100,00 %
05.11.2016 14:44 3,6 C 97 % 1002,2 hPa 0,0 l/m 14,0 km/h (3 Bft) O-NO 78 0 min 0,000 mm 0,0 UV-I 86 W/m 3,2 C -2,1 C 19,3 km/h (3 Bft) 97,56 %
05.11.2016 14:46 3,6 C 97 % 1002,2 hPa 0,0 l/m 12,0 km/h (2 Bft) O-NO 70 0 min 0,000 mm 0,0 UV-I 82 W/m 3,2 C -0,9 C 17,7 km/h (3 Bft) 100,00 %
05.11.2016 14:48 3,6 C 97 % 1002,1 hPa 0,0 l/m 11,7 km/h (2 Bft) O-NO 63 0 min 0,000 mm 0,0 UV-I 87 W/m 3,2 C -0,7 C 17,7 km/h (3 Bft) 100,00 %
05.11.2016 14:50 3,6 C 97 % 1002,1 hPa 0,0 l/m 10,6 km/h (2 Bft) O 80 0 min 0,000 mm 0,0 UV-I 77 W/m 3,2 C 0,1 C 16,1 km/h (3 Bft) 100,00 %
05.11.2016 14:52 3,6 C 97 % 1002,2 hPa 0,0 l/m 14,9 km/h (3 Bft) NO 56 0 min 0,000 mm 0,0 UV-I 68 W/m 3,2 C -2,6 C 22,5 km/h (4 Bft) 100,00 %
05.11.2016 14:54 3,6 C 96 % 1002,2 hPa 0,0 l/m 13,0 km/h (3 Bft) NO 44 0 min 0,000 mm 0,0 UV-I 63 W/m 3,0 C -1,5 C 19,3 km/h (3 Bft) 100,00 %
05.11.2016 14:56 3,6 C 96 % 1002,3 hPa 0,0 l/m 13,7 km/h (3 Bft) O-NO 63 0 min 0,000 mm 0,0 UV-I 63 W/m 3,0 C -1,9 C 17,7 km/h (3 Bft) 100,00 %
05.11.2016 14:58 3,6 C 96 % 1002,4 hPa 0,0 l/m 8,9 km/h (2 Bft) O-NO 71 0 min 0,000 mm 0,0 UV-I 63 W/m 3,0 C 1,4 C 14,5 km/h (3 Bft) 97,14 %
05.11.2016 15:00 3,6 C 96 % 1002,4 hPa 0,0 l/m 7,4 km/h (2 Bft) O 88 0 min 0,026 mm 0,0 UV-I 61 W/m 3,0 C 2,7 C 11,3 km/h (2 Bft) 100,00 %
05.11.2016 15:02 3,6 C 96 % 1002,4 hPa 0,0 l/m 10,1 km/h (2 Bft) O-NO 73 0 min 0,000 mm 0,0 UV-I 53 W/m 3,0 C 0,5 C 16,1 km/h (3 Bft) 97,56 %
05.11.2016 15:04 3,6 C 96 % 1002,5 hPa 0,0 l/m 9,2 km/h (2 Bft) O-SO 106 0 min 0,000 mm 0,0 UV-I 46 W/m 3,0 C 1,1 C 14,5 km/h (3 Bft) 100,00 %
05.11.2016 15:06 3,6 C 96 % 1002,4 hPa 0,0 l/m 7,0 km/h (2 Bft) NO 52 0 min 0,000 mm 0,0 UV-I 38 W/m 3,0 C 3,0 C 11,3 km/h (2 Bft) 100,00 %
05.11.2016 15:08 3,6 C 96 % 1002,4 hPa 0,0 l/m 8,8 km/h (2 Bft) O-NO 60 0 min 0,000 mm 0,0 UV-I 34 W/m 3,0 C 1,5 C 11,3 km/h (2 Bft) 97,73 %
05.11.2016 15:10 3,6 C 96 % 1002,4 hPa 0,0 l/m 9,4 km/h (2 Bft) O-NO 65 0 min 0,000 mm 0,0 UV-I 31 W/m 3,0 C 1,0 C 14,5 km/h (3 Bft) 98,21 %
05.11.2016 15:12 3,6 C 96 % 1002,3 hPa 0,0 l/m 10,7 km/h (2 Bft) O-NO 66 0 min 0,000 mm 0,0 UV-I 33 W/m 3,0 C 0,0 C 16,1 km/h (3 Bft) 97,73 %
05.11.2016 15:14 3,6 C 96 % 1002,2 hPa 0,0 l/m 12,3 km/h (3 Bft) NO 44 0 min 0,000 mm 0,0 UV-I 32 W/m 3,0 C -1,0 C 20,9 km/h (4 Bft) 97,56 %
05.11.2016 15:16 3,6 C 95 % 1002,2 hPa 0,0 l/m 11,0 km/h (2 Bft) O 90 0 min 0,000 mm 0,0 UV-I 31 W/m 2,9 C -0,2 C 16,1 km/h (3 Bft) 97,87 %
05.11.2016 15:18 3,5 C 95 % 1002,2 hPa 0,0 l/m 10,2 km/h (2 Bft) O 83 0 min 0,000 mm 0,0 UV-I 27 W/m 2,8 C 0,3 C 14,5 km/h (3 Bft) 98,00 %
05.11.2016 15:20 3,5 C 95 % 1002,1 hPa 0,0 l/m 11,3 km/h (2 Bft) O-NO 67 0 min 0,000 mm 0,0 UV-I 27 W/m 2,8 C -0,5 C 14,5 km/h (3 Bft) 97,56 %
05.11.2016 15:22 3,5 C 95 % 1002,1 hPa 0,0 l/m 13,7 km/h (3 Bft) O-NO 71 0 min 0,000 mm 0,0 UV-I 26 W/m 2,8 C -2,0 C 17,7 km/h (3 Bft) 92,45 %
05.11.2016 15:24 3,5 C 95 % 1002,0 hPa 0,0 l/m 12,9 km/h (3 Bft) O-NO 64 0 min 0,000 mm 0,0 UV-I 25 W/m 2,8 C -1,5 C 17,7 km/h (3 Bft) 97,87 %
05.11.2016 15:26 3,4 C 95 % 1001,9 hPa 0,0 l/m 11,1 km/h (2 Bft) NO 56 0 min 0,000 mm 0,0 UV-I 25 W/m 2,7 C -0,5 C 17,7 km/h (3 Bft) 95,12 %
05.11.2016 15:28 3,4 C 95 % 1001,9 hPa 0,0 l/m 14,5 km/h (3 Bft) O 79 0 min 0,000 mm 0,0 UV-I 25 W/m 2,7 C -2,6 C 19,3 km/h (3 Bft) 98,11 %
05.11.2016 15:30 3,4 C 95 % 1002,0 hPa 0,0 l/m 13,5 km/h (3 Bft) O 88 0 min 0,000 mm 0,0 UV-I 24 W/m 2,7 C -2,0 C 22,5 km/h (4 Bft) 95,74 %
05.11.2016 15:32 3,4 C 95 % 1002,0 hPa 0,0 l/m 11,9 km/h (2 Bft) O-NO 74 0 min 0,000 mm 0,0 UV-I 25 W/m 2,7 C -1,0 C 17,7 km/h (3 Bft) 96,00 %
05.11.2016 15:34 3,4 C 95 % 1002,1 hPa 0,0 l/m 9,6 km/h (2 Bft) O 89 0 min 0,000 mm 0,0 UV-I 24 W/m 2,7 C 0,6 C 16,1 km/h (3 Bft) 94,74 %
05.11.2016 15:36 3,4 C 95 % 1002,1 hPa 0,0 l/m 6,0 km/h (2 Bft) O-SO 105 0 min 0,000 mm 0,0 UV-I 22 W/m 2,7 C 3,4 C 11,3 km/h (2 Bft) 98,00 %
05.11.2016 15:38 3,4 C 95 % 1002,0 hPa 0,0 l/m 7,9 km/h (2 Bft) NO 55 0 min 0,000 mm 0,0 UV-I 25 W/m 2,7 C 2,0 C 14,5 km/h (3 Bft) 96,00 %
05.11.2016 15:40 3,4 C 95 % 1001,9 hPa 0,0 l/m 9,9 km/h (2 Bft) NO 54 0 min 0,000 mm 0,0 UV-I 26 W/m 2,7 C 0,4 C 14,5 km/h (3 Bft) 97,44 %
05.11.2016 15:42 3,4 C 95 % 1002,0 hPa 0,0 l/m 8,3 km/h (2 Bft) O-NO 71 0 min 0,000 mm 0,0 UV-I 26 W/m 2,7 C 1,7 C 12,9 km/h (3 Bft) 96,23 %
05.11.2016 15:44 3,4 C 95 % 1002,0 hPa 0,0 l/m 10,0 km/h (2 Bft) O-NO 69 0 min 0,000 mm 0,0 UV-I 24 W/m 2,7 C 0,3 C 16,1 km/h (3 Bft) 95,74 %
05.11.2016 15:46 3,4 C 95 % 1002,0 hPa 0,0 l/m 7,1 km/h (2 Bft) O-NO 66 0 min 0,000 mm 0,0 UV-I 25 W/m 2,7 C 2,7 C 9,7 km/h (2 Bft) 98,00 %
05.11.2016 15:48 3,5 C 95 % 1002,0 hPa 0,0 l/m 7,0 km/h (2 Bft) O-NO 62 0 min 0,000 mm 0,0 UV-I 28 W/m 2,8 C 2,9 C 17,7 km/h (3 Bft) 100,00 %
05.11.2016 15:50 3,5 C 95 % 1002,0 hPa 0,0 l/m 10,0 km/h (2 Bft) O-NO 69 0 min 0,000 mm 0,0 UV-I 31 W/m 2,8 C 0,4 C 16,1 km/h (3 Bft) 96,92 %
05.11.2016 15:52 3,5 C 95 % 1002,0 hPa 0,0 l/m 8,4 km/h (2 Bft) NO 52 0 min 0,000 mm 0,0 UV-I 29 W/m 2,8 C 1,7 C 14,5 km/h (3 Bft) 100,00 %
05.11.2016 15:54 3,4 C 95 % 1002,0 hPa 0,0 l/m 10,5 km/h (2 Bft) O-NO 58 0 min 0,000 mm 0,0 UV-I 26 W/m 2,7 C -0,1 C 16,1 km/h (3 Bft) 100,00 %
05.11.2016 15:56 3,4 C 95 % 1001,9 hPa 0,0 l/m 10,6 km/h (2 Bft) NO 54 0 min 0,000 mm 0,0 UV-I 25 W/m 2,7 C -0,1 C 16,1 km/h (3 Bft) 97,73 %
05.11.2016 15:58 3,4 C 94 % 1001,8 hPa 0,0 l/m 11,4 km/h (2 Bft) O-NO 69 0 min 0,000 mm 0,0 UV-I 25 W/m 2,5 C -0,7 C 16,1 km/h (3 Bft) 100,00 %
05.11.2016 16:00 3,4 C 94 % 1001,8 hPa 0,0 l/m 10,7 km/h (2 Bft) O-NO 64 0 min 0,000 mm 0,0 UV-I 22 W/m 2,5 C -0,2 C 16,1 km/h (3 Bft) 100,00 %
05.11.2016 16:02 3,4 C 94 % 1001,8 hPa 0,0 l/m 10,1 km/h (2 Bft) NO 54 0 min 0,025 mm 0,0 UV-I 23 W/m 2,5 C 0,2 C 14,5 km/h (3 Bft) 97,87 %
05.11.2016 16:04 3,4 C 94 % 1001,9 hPa 0,0 l/m 9,1 km/h (2 Bft) NO 49 0 min 0,000 mm 0,0 UV-I 23 W/m 2,5 C 1,0 C 14,5 km/h (3 Bft) 100,00 %
05.11.2016 16:06 3,4 C 94 % 1001,9 hPa 0,0 l/m 7,9 km/h (2 Bft) NO 53 0 min 0,000 mm 0,0 UV-I 23 W/m 2,5 C 2,0 C 11,3 km/h (2 Bft) 100,00 %
05.11.2016 16:08 3,4 C 94 % 1001,9 hPa 0,0 l/m 8,8 km/h (2 Bft) O-NO 61 0 min 0,000 mm 0,0 UV-I 22 W/m 2,5 C 1,2 C 14,5 km/h (3 Bft) 100,00 %
05.11.2016 16:10 3,4 C 94 % 1001,9 hPa 0,0 l/m 10,7 km/h (2 Bft) NO 49 0 min 0,000 mm 0,0 UV-I 20 W/m 2,5 C -0,2 C 14,5 km/h (3 Bft) 98,21 %
05.11.2016 16:12 3,4 C 94 % 1001,8 hPa 0,0 l/m 9,8 km/h (2 Bft) NO 55 0 min 0,000 mm 0,0 UV-I 19 W/m 2,5 C 0,5 C 14,5 km/h (3 Bft) 100,00 %
05.11.2016 16:14 3,4 C 94 % 1001,8 hPa 0,0 l/m 6,4 km/h (2 Bft) N-NO 27 0 min 0,000 mm 0,0 UV-I 18 W/m 2,5 C 3,4 C 9,7 km/h (2 Bft) 100,00 %
05.11.2016 16:16 3,3 C 94 % 1001,7 hPa 0,0 l/m 9,0 km/h (2 Bft) O 79 0 min 0,000 mm 0,0 UV-I 16 W/m 2,4 C 1,0 C 14,5 km/h (3 Bft) 100,00 %
05.11.2016 16:18 3,3 C 94 % 1001,7 hPa 0,0 l/m 13,0 km/h (3 Bft) O-NO 59 0 min 0,000 mm 0,0 UV-I 14 W/m 2,4 C -1,8 C 19,3 km/h (3 Bft) 100,00 %
05.11.2016 16:20 3,3 C 94 % 1001,6 hPa 0,0 l/m 9,8 km/h (2 Bft) O-NO 59 0 min 0,000 mm 0,0 UV-I 13 W/m 2,4 C 0,3 C 16,1 km/h (3 Bft) 100,00 %
05.11.2016 16:22 3,3 C 94 % 1001,8 hPa 0,0 l/m 7,8 km/h (2 Bft) NO 52 0 min 0,000 mm 0,0 UV-I 11 W/m 2,4 C 2,0 C 16,1 km/h (3 Bft) 100,00 %
05.11.2016 16:24 3,3 C 94 % 1001,8 hPa 0,0 l/m 8,6 km/h (2 Bft) O-NO 73 0 min 0,000 mm 0,0 UV-I 11 W/m 2,4 C 1,3 C 12,9 km/h (3 Bft) 96,23 %
05.11.2016 16:26 3,3 C 95 % 1001,7 hPa 0,0 l/m 7,9 km/h (2 Bft) O-NO 60 0 min 0,000 mm 0,0 UV-I 10 W/m 2,6 C 1,9 C 11,3 km/h (2 Bft) 100,00 %
05.11.2016 16:28 3,3 C 95 % 1001,6 hPa 0,0 l/m 8,7 km/h (2 Bft) O-NO 58 0 min 0,000 mm 0,0 UV-I 9 W/m 2,6 C 1,2 C 11,3 km/h (2 Bft) 100,00 %
05.11.2016 16:30 3,3 C 95 % 1001,6 hPa 0,0 l/m 8,2 km/h (2 Bft) NO 56 0 min 0,000 mm 0,0 UV-I 7 W/m 2,6 C 1,6 C 12,9 km/h (3 Bft) 96,23 %
05.11.2016 16:33 3,3 C 95 % 1001,6 hPa 0,0 l/m 7,7 km/h (2 Bft) NO 40 0 min 0,000 mm 0,0 UV-I 7 W/m 2,6 C 2,1 C 11,3 km/h (2 Bft) 100,00 %
05.11.2016 16:34 3,3 C 95 % 1001,6 hPa 0,0 l/m 4,8 km/h (1 Bft) NO 34 0 min 0,000 mm 0,0 UV-I 5 W/m 2,6 C 3,3 C 6,4 km/h (2 Bft) 100,00 %
05.11.2016 16:36 3,3 C 95 % 1001,5 hPa 0,0 l/m 6,2 km/h (2 Bft) NO 48 0 min 0,000 mm 0,0 UV-I 5 W/m 2,6 C 3,3 C 9,7 km/h (2 Bft) 100,00 %
05.11.2016 16:38 3,2 C 95 % 1001,5 hPa 0,0 l/m 8,8 km/h (2 Bft) NO 46 0 min 0,000 mm 0,0 UV-I 5 W/m 2,5 C 1,0 C 14,5 km/h (3 Bft) 98,11 %
05.11.2016 16:40 3,2 C 95 % 1001,6 hPa 0,0 l/m 8,9 km/h (2 Bft) NO 51 0 min 0,000 mm 0,0 UV-I 4 W/m 2,5 C 0,9 C 16,1 km/h (3 Bft) 100,00 %
05.11.2016 16:42 3,2 C 95 % 1001,5 hPa 0,0 l/m 7,5 km/h (2 Bft) NO 43 0 min 0,000 mm 0,0 UV-I 0 W/m 2,5 C 2,2 C 9,7 km/h (2 Bft) 100,00 %
05.11.2016 16:44 3,2 C 95 % 1001,4 hPa 0,0 l/m 7,7 km/h (2 Bft) N-NO 30 0 min 0,000 mm 0,0 UV-I 0 W/m 2,5 C 2,0 C 9,7 km/h (2 Bft) 100,00 %
05.11.2016 16:46 3,2 C 95 % 1001,3 hPa 0,0 l/m 7,1 km/h (2 Bft) NO 34 0 min 0,000 mm 0,0 UV-I 0 W/m 2,5 C 2,5 C 9,7 km/h (2 Bft) 100,00 %
05.11.2016 16:48 3,2 C 95 % 1001,3 hPa 0,0 l/m 9,2 km/h (2 Bft) NO 53 0 min 0,000 mm 0,0 UV-I 0 W/m 2,5 C 0,7 C 14,5 km/h (3 Bft) 100,00 %
05.11.2016 16:50 3,2 C 95 % 1001,3 hPa 0,0 l/m 11,3 km/h (2 Bft) NO 40 0 min 0,000 mm 0,0 UV-I 0 W/m 2,5 C -0,8 C 16,1 km/h (3 Bft) 100,00 %
05.11.2016 16:52 3,1 C 95 % 1001,3 hPa 0,0 l/m 8,4 km/h (2 Bft) NO 53 0 min 0,000 mm 0,0 UV-I 0 W/m 2,4 C 1,3 C 12,9 km/h (3 Bft) 100,00 %
05.11.2016 16:54 3,2 C 95 % 1001,3 hPa 0,0 l/m 10,4 km/h (2 Bft) O-NO 60 0 min 0,000 mm 0,0 UV-I 0 W/m 2,5 C -0,2 C 14,5 km/h (3 Bft) 100,00 %
05.11.2016 16:56 3,1 C 95 % 1001,4 hPa 0,0 l/m 11,5 km/h (2 Bft) O 84 0 min 0,000 mm 0,0 UV-I 0 W/m 2,4 C -1,1 C 14,5 km/h (3 Bft) 100,00 %
05.11.2016 16:58 3,1 C 95 % 1001,4 hPa 0,0 l/m 8,8 km/h (2 Bft) NO 49 0 min 0,000 mm 0,0 UV-I 0 W/m 2,4 C 0,9 C 14,5 km/h (3 Bft) 100,00 %
05.11.2016 17:00 3,1 C 95 % 1001,3 hPa 0,0 l/m 11,0 km/h (2 Bft) O-NO 69 0 min 0,000 mm 0,0 UV-I 0 W/m 2,4 C -0,8 C 19,3 km/h (3 Bft) 100,00 %
05.11.2016 17:02 3,1 C 95 % 1001,3 hPa 0,0 l/m 15,0 km/h (3 Bft) O-NO 66 0 min 0,000 mm 0,0 UV-I 0 W/m 2,4 C -3,2 C 19,3 km/h (3 Bft) 100,00 %
05.11.2016 17:04 3,1 C 95 % 1001,3 hPa 0,0 l/m 10,5 km/h (2 Bft) O-NO 69 0 min 0,000 mm 0,0 UV-I 0 W/m 2,4 C -0,4 C 14,5 km/h (3 Bft) 96,00 %
05.11.2016 17:06 3,1 C 95 % 1001,3 hPa 0,0 l/m 11,8 km/h (2 Bft) O-NO 58 0 min 0,000 mm 0,0 UV-I 0 W/m 2,4 C -1,3 C 16,1 km/h (3 Bft) 100,00 %
05.11.2016 17:08 3,1 C 95 % 1001,3 hPa 0,0 l/m 9,6 km/h (2 Bft) O-NO 71 0 min 0,000 mm 0,0 UV-I 0 W/m 2,4 C 0,3 C 14,5 km/h (3 Bft) 100,00 %
05.11.2016 17:10 3,1 C 95 % 1001,4 hPa 0,0 l/m 9,7 km/h (2 Bft) NO 55 0 min 0,000 mm 0,0 UV-I 0 W/m 2,4 C 0,2 C 14,5 km/h (3 Bft) 98,31 %
05.11.2016 17:12 3,1 C 95 % 1001,3 hPa 0,0 l/m 11,9 km/h (2 Bft) NO 53 0 min 0,000 mm 0,0 UV-I 0 W/m 2,4 C -1,4 C 16,1 km/h (3 Bft) 97,56 %
05.11.2016 17:14 3,0 C 95 % 1001,3 hPa 0,0 l/m 10,1 km/h (2 Bft) NO 46 0 min 0,000 mm 0,0 UV-I 0 W/m 2,3 C -0,2 C 14,5 km/h (3 Bft) 95,12 %
05.11.2016 17:16 3,0 C 95 % 1001,2 hPa 0,0 l/m 8,3 km/h (2 Bft) O-NO 59 0 min 0,000 mm 0,0 UV-I 0 W/m 2,3 C 1,2 C 12,9 km/h (3 Bft) 92,11 %
05.11.2016 17:18 3,0 C 95 % 1001,2 hPa 0,0 l/m 8,4 km/h (2 Bft) N-NO 30 0 min 0,000 mm 0,0 UV-I 0 W/m 2,3 C 1,2 C 12,9 km/h (3 Bft) 98,53 %
05.11.2016 17:20 3,0 C 95 % 1001,2 hPa 0,0 l/m 6,5 km/h (2 Bft) NO 38 0 min 0,000 mm 0,0 UV-I 0 W/m 2,3 C 2,9 C 8,0 km/h (2 Bft) 97,56 %
05.11.2016 17:22 3,0 C 95 % 1001,1 hPa 0,0 l/m 11,1 km/h (2 Bft) NO 48 0 min 0,000 mm 0,0 UV-I 0 W/m 2,3 C -0,9 C 14,5 km/h (3 Bft) 96,23 %
05.11.2016 17:24 2,9 C 95 % 1001,2 hPa 0,0 l/m 6,9 km/h (2 Bft) NO 39 0 min 0,000 mm 0,0 UV-I 0 W/m 2,2 C 2,4 C 9,7 km/h (2 Bft) 97,87 %
05.11.2016 17:26 2,9 C 95 % 1001,1 hPa 0,0 l/m 8,0 km/h (2 Bft) NO 44 0 min 0,000 mm 0,0 UV-I 0 W/m 2,2 C 1,4 C 11,3 km/h (2 Bft) 100,00 %
05.11.2016 17:28 2,9 C 95 % 1001,0 hPa 0,0 l/m 8,3 km/h (2 Bft) NO 44 0 min 0,000 mm 0,0 UV-I 0 W/m 2,2 C 1,1 C 11,3 km/h (2 Bft) 96,20 %
05.11.2016 17:30 2,9 C 95 % 1001,0 hPa 0,0 l/m 7,0 km/h (2 Bft) NO 42 0 min 0,000 mm 0,0 UV-I 0 W/m 2,2 C 2,3 C 9,7 km/h (2 Bft) 97,56 %
05.11.2016 17:32 2,9 C 95 % 1001,0 hPa 0,0 l/m 7,7 km/h (2 Bft) NO 53 0 min 0,000 mm 0,0 UV-I 0 W/m 2,2 C 1,7 C 12,9 km/h (3 Bft) 96,00 %
05.11.2016 17:34 2,9 C 95 % 1001,0 hPa 0,0 l/m 8,1 km/h (2 Bft) NO 44 0 min 0,000 mm 0,0 UV-I 0 W/m 2,2 C 1,3 C 14,5 km/h (3 Bft) 97,44 %
05.11.2016 17:36 2,9 C 95 % 1000,9 hPa 0,0 l/m 9,5 km/h (2 Bft) NO 37 0 min 0,000 mm 0,0 UV-I 0 W/m 2,2 C 0,1 C 14,5 km/h (3 Bft) 96,15 %
05.11.2016 17:38 2,8 C 95 % 1000,8 hPa 0,0 l/m 10,4 km/h (2 Bft) NO 37 0 min 0,000 mm 0,0 UV-I 0 W/m 2,1 C -0,7 C 14,5 km/h (3 Bft) 97,62 %
05.11.2016 17:40 2,8 C 95 % 1000,8 hPa 0,0 l/m 7,9 km/h (2 Bft) NO 44 0 min 0,000 mm 0,0 UV-I 0 W/m 2,1 C 1,4 C 16,1 km/h (3 Bft) 98,00 %
05.11.2016 17:42 2,8 C 95 % 1000,8 hPa 0,0 l/m 7,9 km/h (2 Bft) NO 44 0 min 0,000 mm 0,0 UV-I 0 W/m 2,1 C 1,4 C 11,3 km/h (2 Bft) 96,23 %
05.11.2016 17:44 2,8 C 95 % 1000,8 hPa 0,0 l/m 8,0 km/h (2 Bft) O-NO 62 0 min 0,000 mm 0,0 UV-I 0 W/m 2,1 C 1,3 C 11,3 km/h (2 Bft) 97,37 %
05.11.2016 17:46 2,8 C 95 % 1000,8 hPa 0,0 l/m 6,8 km/h (2 Bft) NO 45 0 min 0,000 mm 0,0 UV-I 0 W/m 2,1 C 2,4 C 9,7 km/h (2 Bft) 97,87 %
05.11.2016 17:48 2,8 C 95 % 1000,7 hPa 0,0 l/m 8,1 km/h (2 Bft) NO 53 0 min 0,000 mm 0,0 UV-I 0 W/m 2,1 C 1,2 C 11,3 km/h (2 Bft) 100,00 %
05.11.2016 17:50 2,8 C 95 % 1000,8 hPa 0,0 l/m 6,6 km/h (2 Bft) NO 55 0 min 0,000 mm 0,0 UV-I 0 W/m 2,1 C 2,6 C 9,7 km/h (2 Bft) 98,00 %
05.11.2016 17:52 2,7 C 95 % 1000,8 hPa 0,0 l/m 7,1 km/h (2 Bft) NO 55 0 min 0,000 mm 0,0 UV-I 0 W/m 2,0 C 2,0 C 9,7 km/h (2 Bft) 97,37 %
05.11.2016 17:54 2,8 C 95 % 1000,7 hPa 0,0 l/m 9,3 km/h (2 Bft) NO 35 0 min 0,000 mm 0,0 UV-I 0 W/m 2,1 C 0,2 C 14,5 km/h (3 Bft) 100,00 %
05.11.2016 17:56 2,7 C 95 % 1000,6 hPa 0,0 l/m 6,9 km/h (2 Bft) NO 47 0 min 0,000 mm 0,0 UV-I 0 W/m 2,0 C 2,2 C 12,9 km/h (3 Bft) 96,00 %
05.11.2016 17:58 2,7 C 95 % 1000,6 hPa 0,0 l/m 6,4 km/h (2 Bft) O-NO 71 0 min 0,000 mm 0,0 UV-I 0 W/m 2,0 C 2,7 C 12,9 km/h (3 Bft) 100,00 %
05.11.2016 18:00 2,7 C 95 % 1000,6 hPa 0,0 l/m 4,9 km/h (1 Bft) NO 34 0 min 0,000 mm 0,0 UV-I 0 W/m 2,0 C 2,7 C 6,4 km/h (2 Bft) 97,87 %
05.11.2016 18:02 2,7 C 95 % 1000,6 hPa 0,0 l/m 6,3 km/h (2 Bft) NO 49 0 min 0,000 mm 0,0 UV-I 0 W/m 2,0 C 2,7 C 9,7 km/h (2 Bft) 95,74 %
05.11.2016 18:04 2,7 C 95 % 1000,6 hPa 0,0 l/m 6,2 km/h (2 Bft) NO 51 0 min 0,000 mm 0,0 UV-I 0 W/m 2,0 C 2,7 C 9,7 km/h (2 Bft) 100,00 %
05.11.2016 18:06 2,7 C 95 % 1000,7 hPa 0,0 l/m 3,3 km/h (1 Bft) O-NO 59 0 min 0,000 mm 0,0 UV-I 0 W/m 2,0 C 2,7 C 4,8 km/h (1 Bft) 100,00 %
05.11.2016 18:08 2,7 C 95 % 1000,6 hPa 0,0 l/m 4,8 km/h (1 Bft) NO 51 0 min 0,000 mm 0,0 UV-I 0 W/m 2,0 C 2,7 C 8,0 km/h (2 Bft) 100,00 %
05.11.2016 18:10 2,7 C 95 % 1000,4 hPa 0,0 l/m 6,5 km/h (2 Bft) NO 50 0 min 0,000 mm 0,0 UV-I 0 W/m 2,0 C 2,6 C 8,0 km/h (2 Bft) 98,11 %
05.11.2016 18:12 2,7 C 95 % 1000,4 hPa 0,0 l/m 4,2 km/h (1 Bft) O-NO 63 0 min 0,000 mm 0,0 UV-I 0 W/m 2,0 C 2,7 C 8,0 km/h (2 Bft) 100,00 %
05.11.2016 18:14 2,7 C 95 % 1000,5 hPa 0,0 l/m 5,7 km/h (1 Bft) NO 38 0 min 0,000 mm 0,0 UV-I 0 W/m 2,0 C 2,7 C 9,7 km/h (2 Bft) 100,00 %
05.11.2016 18:16 2,6 C 95 % 1000,5 hPa 0,0 l/m 5,8 km/h (2 Bft) NO 38 0 min 0,000 mm 0,0 UV-I 0 W/m 1,9 C 2,6 C 8,0 km/h (2 Bft) 100,00 %
05.11.2016 18:18 2,6 C 95 % 1000,5 hPa 0,0 l/m 3,0 km/h (1 Bft) NO 35 0 min 0,000 mm 0,0 UV-I 0 W/m 1,9 C 2,6 C 4,8 km/h (1 Bft) 100,00 %
05.11.2016 18:20 2,6 C 95 % 1000,4 hPa 0,0 l/m 4,8 km/h (1 Bft) O-NO 62 0 min 0,000 mm 0,0 UV-I 0 W/m 1,9 C 2,6 C 8,0 km/h (2 Bft) 100,00 %
05.11.2016 18:22 2,6 C 95 % 1000,3 hPa 0,0 l/m 4,5 km/h (1 Bft) N-NO 27 0 min 0,000 mm 0,0 UV-I 0 W/m 1,9 C 2,6 C 6,4 km/h (2 Bft) 96,23 %
05.11.2016 18:24 2,6 C 95 % 1000,3 hPa 0,0 l/m 7,2 km/h (2 Bft) NO 44 0 min 0,000 mm 0,0 UV-I 0 W/m 1,9 C 1,8 C 9,7 km/h (2 Bft) 98,00 %
05.11.2016 18:26 2,5 C 95 % 1000,3 hPa 0,0 l/m 4,8 km/h (1 Bft) NO 39 0 min 0,000 mm 0,0 UV-I 0 W/m 1,8 C 2,5 C 8,0 km/h (2 Bft) 97,37 %
05.11.2016 18:28 2,5 C 96 % 1000,4 hPa 0,0 l/m 2,3 km/h (1 Bft) NO 39 0 min 0,000 mm 0,0 UV-I 0 W/m 1,9 C 2,5 C 4,8 km/h (1 Bft) 100,00 %
05.11.2016 18:30 2,4 C 96 % 1000,4 hPa 0,0 l/m 3,2 km/h (1 Bft) O-NO 59 0 min 0,000 mm 0,0 UV-I 0 W/m 1,8 C 2,4 C 4,8 km/h (1 Bft) 98,00 %
05.11.2016 18:32 2,5 C 96 % 1000,4 hPa 0,0 l/m 2,3 km/h (1 Bft) O-NO 59 0 min 0,000 mm 0,0 UV-I 0 W/m 1,9 C 2,5 C 3,2 km/h (1 Bft) 100,00 %
05.11.2016 18:34 2,4 C 96 % 1000,4 hPa 0,0 l/m 1,1 km/h (1 Bft) O-NO 59 0 min 0,000 mm 0,0 UV-I 0 W/m 1,8 C 2,4 C 3,2 km/h (1 Bft) 100,00 %
05.11.2016 18:36 2,4 C 96 % 1000,5 hPa 0,0 l/m 0,0 km/h (0 Bft) O-NO 59 0 min 0,000 mm 0,0 UV-I 0 W/m 1,8 C 2,4 C 0,0 km/h (0 Bft) 97,87 %
05.11.2016 18:38 2,4 C 96 % 1000,5 hPa 0,0 l/m 0,0 km/h (0 Bft) O-NO 59 0 min 0,000 mm 0,0 UV-I 0 W/m 1,8 C 2,4 C 0,0 km/h (0 Bft) 100,00 %
05.11.2016 18:40 2,4 C 96 % 1000,3 hPa 0,0 l/m 1,0 km/h (0 Bft) O-NO 59 0 min 0,000 mm 0,0 UV-I 0 W/m 1,8 C 2,4 C 3,2 km/h (1 Bft) 100,00 %
05.11.2016 18:43 2,4 C 96 % 1000,2 hPa 0,0 l/m 2,0 km/h (1 Bft) O-NO 58 0 min 0,000 mm 0,0 UV-I 0 W/m 1,8 C 2,4 C 4,8 km/h (1 Bft) 98,70 %
05.11.2016 18:44 2,3 C 96 % 1000,2 hPa 0,0 l/m 2,1 km/h (1 Bft) O-NO 58 0 min 0,000 mm 0,0 UV-I 0 W/m 1,7 C 2,3 C 3,2 km/h (1 Bft) 100,00 %
05.11.2016 18:46 2,3 C 96 % 1000,2 hPa 0,0 l/m 0,2 km/h (0 Bft) O-NO 58 0 min 0,000 mm 0,0 UV-I 0 W/m 1,7 C 2,3 C 1,6 km/h (1 Bft) 98,11 %
05.11.2016 18:48 2,3 C 96 % 1000,1 hPa 0,0 l/m 0,1 km/h (0 Bft) O-NO 58 0 min 0,000 mm 0,0 UV-I 0 W/m 1,7 C 2,3 C 1,6 km/h (1 Bft) 100,00 %
05.11.2016 18:50 2,3 C 96 % 1000,2 hPa 0,0 l/m 0,6 km/h (0 Bft) O-NO 57 0 min 0,000 mm 0,0 UV-I 0 W/m 1,7 C 2,3 C 3,2 km/h (1 Bft) 98,00 %
05.11.2016 18:52 2,3 C 96 % 1000,4 hPa 0,0 l/m 0,6 km/h (0 Bft) O-NO 57 0 min 0,000 mm 0,0 UV-I 0 W/m 1,7 C 2,3 C 1,6 km/h (1 Bft) 100,00 %
05.11.2016 18:54 2,3 C 96 % 1000,2 hPa 0,0 l/m 0,3 km/h (0 Bft) O-NO 57 0 min 0,000 mm 0,0 UV-I 0 W/m 1,7 C 2,3 C 1,6 km/h (1 Bft) 100,00 %
05.11.2016 18:56 2,3 C 96 % 1000,2 hPa 0,0 l/m 0,0 km/h (0 Bft) O-NO 57 0 min 0,000 mm 0,0 UV-I 0 W/m 1,7 C 2,3 C 0,0 km/h (0 Bft) 100,00 %
05.11.2016 18:58 2,3 C 96 % 1000,2 hPa 0,0 l/m 0,2 km/h (0 Bft) O-NO 57 0 min 0,000 mm 0,0 UV-I 0 W/m 1,7 C 2,3 C 3,2 km/h (1 Bft) 97,22 %
05.11.2016 19:00 2,2 C 96 % 1000,4 hPa 0,0 l/m 3,3 km/h (1 Bft) N 9 0 min 0,000 mm 0,0 UV-I 0 W/m 1,6 C 2,2 C 4,8 km/h (1 Bft) 100,00 %
05.11.2016 19:02 2,2 C 96 % 1000,4 hPa 0,0 l/m 3,3 km/h (1 Bft) N 9 0 min 0,000 mm 0,0 UV-I 0 W/m 1,6 C 2,2 C 4,8 km/h (1 Bft) 100,00 %
05.11.2016 19:04 2,2 C 96 % 1000,4 hPa 0,0 l/m 2,2 km/h (1 Bft) N 9 0 min 0,000 mm 0,0 UV-I 0 W/m 1,6 C 2,2 C 3,2 km/h (1 Bft) 100,00 %
05.11.2016 19:06 2,2 C 96 % 1000,3 hPa 0,0 l/m 0,5 km/h (0 Bft) N 9 0 min 0,000 mm 0,0 UV-I 0 W/m 1,6 C 2,2 C 1,6 km/h (1 Bft) 98,00 %
05.11.2016 19:08 2,2 C 96 % 1000,1 hPa 0,0 l/m 0,0 km/h (0 Bft) N 9 0 min 0,000 mm 0,0 UV-I 0 W/m 1,6 C 2,2 C 0,0 km/h (0 Bft) 100,00 %
05.11.2016 19:10 2,1 C 96 % 1000,0 hPa 0,0 l/m 1,0 km/h (0 Bft) N-NO 17 0 min 0,000 mm 0,0 UV-I 0 W/m 1,5 C 2,1 C 3,2 km/h (1 Bft) 100,00 %
05.11.2016 19:12 2,1 C 96 % 1000,0 hPa 0,0 l/m 5,5 km/h (1 Bft) O-SO 121 0 min 0,000 mm 0,0 UV-I 0 W/m 1,5 C 2,1 C 8,0 km/h (2 Bft) 97,87 %
05.11.2016 19:14 2,0 C 96 % 999,9 hPa 0,0 l/m 7,2 km/h (2 Bft) O-SO 121 0 min 0,000 mm 0,0 UV-I 0 W/m 1,4 C 1,2 C 11,3 km/h (2 Bft) 98,21 %
05.11.2016 19:16 1,9 C 96 % 1000,0 hPa 0,0 l/m 4,2 km/h (1 Bft) O-SO 112 0 min 0,000 mm 0,0 UV-I 0 W/m 1,3 C 1,9 C 6,4 km/h (2 Bft) 97,14 %
05.11.2016 19:18 1,8 C 96 % 1000,1 hPa 0,0 l/m 1,7 km/h (1 Bft) O-SO 112 0 min 0,000 mm 0,0 UV-I 0 W/m 1,2 C 1,8 C 3,2 km/h (1 Bft) 98,31 %
05.11.2016 19:20 1,8 C 96 % 1000,1 hPa 0,0 l/m 2,8 km/h (1 Bft) S-SO 148 0 min 0,000 mm 0,0 UV-I 0 W/m 1,2 C 1,8 C 3,2 km/h (1 Bft) 97,83 %
05.11.2016 19:22 1,8 C 96 % 1000,1 hPa 0,0 l/m 2,6 km/h (1 Bft) S-SO 148 0 min 0,000 mm 0,0 UV-I 0 W/m 1,2 C 1,8 C 4,8 km/h (1 Bft) 97,37 %
05.11.2016 19:24 1,8 C 96 % 1000,1 hPa 0,0 l/m 3,2 km/h (1 Bft) S-SO 165 0 min 0,000 mm 0,0 UV-I 0 W/m 1,2 C 1,8 C 6,4 km/h (2 Bft) 93,62 %
05.11.2016 19:26 1,8 C 96 % 1000,1 hPa 0,0 l/m 2,9 km/h (1 Bft) S 169 0 min 0,000 mm 0,0 UV-I 0 W/m 1,2 C 1,8 C 6,4 km/h (2 Bft) 97,44 %
05.11.2016 19:28 1,8 C 97 % 1000,0 hPa 0,0 l/m 1,2 km/h (1 Bft) S 169 0 min 0,000 mm 0,0 UV-I 0 W/m 1,4 C 1,8 C 3,2 km/h (1 Bft) 96,30 %
05.11.2016 19:30 1,8 C 97 % 1000,0 hPa 0,0 l/m 2,6 km/h (1 Bft) S-SO 147 0 min 0,000 mm 0,0 UV-I 0 W/m 1,4 C 1,8 C 6,4 km/h (2 Bft) 98,00 %
05.11.2016 19:32 1,8 C 97 % 999,8 hPa 0,0 l/m 6,5 km/h (2 Bft) O-SO 115 0 min 0,000 mm 0,0 UV-I 0 W/m 1,4 C 1,7 C 11,3 km/h (2 Bft) 98,00 %
05.11.2016 19:34 1,7 C 96 % 999,8 hPa 0,0 l/m 10,1 km/h (2 Bft) O-SO 115 0 min 0,000 mm 0,0 UV-I 0 W/m 1,1 C -1,7 C 11,3 km/h (2 Bft) 95,24 %
05.11.2016 19:36 1,8 C 96 % 999,7 hPa 0,0 l/m 9,5 km/h (2 Bft) O-SO 123 0 min 0,000 mm 0,0 UV-I 0 W/m 1,2 C -1,1 C 16,1 km/h (3 Bft) 98,08 %
05.11.2016 19:38 1,8 C 96 % 999,6 hPa 0,0 l/m 11,7 km/h (2 Bft) O-SO 118 0 min 0,000 mm 0,0 UV-I 0 W/m 1,2 C -2,7 C 14,5 km/h (3 Bft) 97,62 %
05.11.2016 19:40 1,8 C 97 % 999,6 hPa 0,0 l/m 6,5 km/h (2 Bft) SO 128 0 min 0,000 mm 0,0 UV-I 0 W/m 1,4 C 1,7 C 14,5 km/h (3 Bft) 98,11 %
05.11.2016 19:42 1,9 C 97 % 999,5 hPa 0,0 l/m 7,9 km/h (2 Bft) SO 128 0 min 0,000 mm 0,0 UV-I 0 W/m 1,5 C 0,4 C 12,9 km/h (3 Bft) 100,00 %
05.11.2016 19:44 1,9 C 97 % 999,4 hPa 0,0 l/m 9,2 km/h (2 Bft) S-SO 159 0 min 0,000 mm 0,0 UV-I 0 W/m 1,5 C -0,7 C 17,7 km/h (3 Bft) 94,64 %
05.11.2016 19:46 2,0 C 97 % 999,4 hPa 0,0 l/m 4,3 km/h (1 Bft) O-SO 115 0 min 0,000 mm 0,0 UV-I 0 W/m 1,6 C 2,0 C 11,3 km/h (2 Bft) 95,45 %
05.11.2016 19:48 2,1 C 97 % 999,5 hPa 0,0 l/m 2,5 km/h (1 Bft) W 271 0 min 0,000 mm 0,0 UV-I 0 W/m 1,7 C 2,1 C 4,8 km/h (1 Bft) 97,37 %
05.11.2016 19:50 2,1 C 97 % 999,7 hPa 0,0 l/m 6,7 km/h (2 Bft) W 263 0 min 0,000 mm 0,0 UV-I 0 W/m 1,7 C 1,8 C 12,9 km/h (3 Bft) 98,21 %
05.11.2016 19:52 2,1 C 97 % 999,8 hPa 0,0 l/m 7,5 km/h (2 Bft) W-SW 239 0 min 0,000 mm 0,0 UV-I 0 W/m 1,7 C 1,0 C 12,9 km/h (3 Bft) 100,00 %
05.11.2016 19:54 2,1 C 97 % 999,9 hPa 0,0 l/m 6,1 km/h (2 Bft) SW 234 0 min 0,000 mm 0,0 UV-I 0 W/m 1,7 C 2,1 C 9,7 km/h (2 Bft) 100,00 %
05.11.2016 19:56 2,1 C 97 % 1000,0 hPa 0,0 l/m 4,1 km/h (1 Bft) SW 221 0 min 0,000 mm 0,0 UV-I 0 W/m 1,7 C 2,1 C 6,4 km/h (2 Bft) 100,00 %
05.11.2016 19:58 2,1 C 97 % 1000,0 hPa 0,0 l/m 3,2 km/h (1 Bft) SW 221 0 min 0,000 mm 0,0 UV-I 0 W/m 1,7 C 2,1 C 4,8 km/h (1 Bft) 96,23 %
05.11.2016 20:00 2,1 C 97 % 999,9 hPa 0,0 l/m 1,6 km/h (1 Bft) SW 221 0 min 0,000 mm 0,0 UV-I 0 W/m 1,7 C 2,1 C 3,2 km/h (1 Bft) 100,00 %
05.11.2016 20:02 2,1 C 97 % 999,9 hPa 0,0 l/m 2,2 km/h (1 Bft) SW 228 0 min 0,000 mm 0,0 UV-I 0 W/m 1,7 C 2,1 C 4,8 km/h (1 Bft) 100,00 %
05.11.2016 20:04 2,1 C 97 % 999,8 hPa 0,0 l/m 2,0 km/h (1 Bft) SW 228 0 min 0,000 mm 0,0 UV-I 0 W/m 1,7 C 2,1 C 3,2 km/h (1 Bft) 100,00 %
05.11.2016 20:06 2,1 C 97 % 999,8 hPa 0,0 l/m 1,9 km/h (1 Bft) SW 228 0 min 0,000 mm 0,0 UV-I 0 W/m 1,7 C 2,1 C 3,2 km/h (1 Bft) 100,00 %
05.11.2016 20:08 2,1 C 97 % 999,8 hPa 0,0 l/m 1,3 km/h (1 Bft) SW 228 0 min 0,000 mm 0,0 UV-I 0 W/m 1,7 C 2,1 C 3,2 km/h (1 Bft) 100,00 %
05.11.2016 20:10 2,1 C 97 % 999,9 hPa 0,0 l/m 3,3 km/h (1 Bft) SW 228 0 min 0,000 mm 0,0 UV-I 0 W/m 1,7 C 2,1 C 4,8 km/h (1 Bft) 98,00 %
05.11.2016 20:12 2,1 C 97 % 1000,0 hPa 0,0 l/m 4,9 km/h (1 Bft) SW 228 0 min 0,000 mm 0,0 UV-I 0 W/m 1,7 C 2,1 C 6,4 km/h (2 Bft) 97,87 %
05.11.2016 20:14 2,1 C 97 % 1000,1 hPa 0,0 l/m 4,8 km/h (1 Bft) SW 223 0 min 0,000 mm 0,0 UV-I 0 W/m 1,7 C 2,1 C 6,4 km/h (2 Bft) 100,00 %
05.11.2016 20:16 2,1 C 97 % 1000,1 hPa 0,0 l/m 3,4 km/h (1 Bft) SW 223 0 min 0,000 mm 0,0 UV-I 0 W/m 1,7 C 2,1 C 6,4 km/h (2 Bft) 100,00 %
05.11.2016 20:18 2,1 C 97 % 1000,1 hPa 0,0 l/m 5,6 km/h (1 Bft) S-SW 205 0 min 0,000 mm 0,0 UV-I 0 W/m 1,7 C 2,1 C 8,0 km/h (2 Bft) 97,44 %
05.11.2016 20:20 2,1 C 97 % 1000,1 hPa 0,0 l/m 4,8 km/h (1 Bft) S-SW 202 0 min 0,000 mm 0,0 UV-I 0 W/m 1,7 C 2,1 C 8,0 km/h (2 Bft) 100,00 %
05.11.2016 20:22 2,1 C 97 % 1000,1 hPa 0,0 l/m 5,3 km/h (1 Bft) SW 230 0 min 0,000 mm 0,0 UV-I 0 W/m 1,7 C 2,1 C 9,7 km/h (2 Bft) 97,87 %
05.11.2016 20:24 2,2 C 97 % 1000,0 hPa 0,0 l/m 5,2 km/h (1 Bft) S-SW 207 0 min 0,000 mm 0,0 UV-I 0 W/m 1,8 C 2,2 C 8,0 km/h (2 Bft) 100,00 %
05.11.2016 20:26 2,2 C 97 % 1000,0 hPa 0,0 l/m 3,6 km/h (1 Bft) S-SW 208 0 min 0,000 mm 0,0 UV-I 0 W/m 1,8 C 2,2 C 4,8 km/h (1 Bft) 95,74 %
05.11.2016 20:28 2,2 C 97 % 999,9 hPa 0,0 l/m 3,0 km/h (1 Bft) S-SW 208 0 min 0,000 mm 0,0 UV-I 0 W/m 1,8 C 2,2 C 4,8 km/h (1 Bft) 100,00 %
05.11.2016 20:30 2,2 C 97 % 999,9 hPa 0,0 l/m 2,2 km/h (1 Bft) S-SW 208 0 min 0,000 mm 0,0 UV-I 0 W/m 1,8 C 2,2 C 4,8 km/h (1 Bft) 100,00 %
05.11.2016 20:32 2,3 C 97 % 1000,0 hPa 0,0 l/m 3,0 km/h (1 Bft) S-SW 208 0 min 0,000 mm 0,0 UV-I 0 W/m 1,9 C 2,3 C 4,8 km/h (1 Bft) 100,00 %
05.11.2016 20:34 2,3 C 97 % 999,9 hPa 0,0 l/m 6,6 km/h (2 Bft) S-SW 194 0 min 0,000 mm 0,0 UV-I 0 W/m 1,9 C 2,1 C 11,3 km/h (2 Bft) 100,00 %
05.11.2016 20:36 2,3 C 97 % 999,9 hPa 0,0 l/m 5,5 km/h (1 Bft) S-SW 199 0 min 0,000 mm 0,0 UV-I 0 W/m 1,9 C 2,3 C 9,7 km/h (2 Bft) 100,00 %
05.11.2016 20:38 2,3 C 97 % 999,9 hPa 0,0 l/m 4,6 km/h (1 Bft) S 177 0 min 0,000 mm 0,0 UV-I 0 W/m 1,9 C 2,3 C 8,0 km/h (2 Bft) 96,00 %
05.11.2016 20:40 2,3 C 97 % 999,7 hPa 0,0 l/m 2,8 km/h (1 Bft) S-SO 164 0 min 0,000 mm 0,0 UV-I 0 W/m 1,9 C 2,3 C 6,4 km/h (2 Bft) 100,00 %
05.11.2016 20:42 2,4 C 97 % 999,8 hPa 0,0 l/m 4,4 km/h (1 Bft) S-SW 201 0 min 0,000 mm 0,0 UV-I 0 W/m 2,0 C 2,4 C 9,7 km/h (2 Bft) 100,00 %
05.11.2016 20:44 2,4 C 97 % 999,8 hPa 0,0 l/m 3,5 km/h (1 Bft) SW 221 0 min 0,000 mm 0,0 UV-I 0 W/m 2,0 C 2,4 C 4,8 km/h (1 Bft) 100,00 %
05.11.2016 20:46 2,4 C 97 % 999,8 hPa 0,0 l/m 2,9 km/h (1 Bft) W-SW 247 0 min 0,000 mm 0,0 UV-I 0 W/m 2,0 C 2,4 C 6,4 km/h (2 Bft) 97,56 %
05.11.2016 20:48 2,4 C 97 % 999,8 hPa 0,0 l/m 5,2 km/h (1 Bft) SW 230 0 min 0,000 mm 0,0 UV-I 0 W/m 2,0 C 2,4 C 6,4 km/h (2 Bft) 98,28 %
05.11.2016 20:50 2,4 C 97 % 999,9 hPa 0,0 l/m 5,8 km/h (2 Bft) W-SW 247 0 min 0,000 mm 0,0 UV-I 0 W/m 2,0 C 2,4 C 9,7 km/h (2 Bft) 100,00 %
05.11.2016 20:52 2,4 C 97 % 999,9 hPa 0,0 l/m 6,2 km/h (2 Bft) SW 234 0 min 0,000 mm 0,0 UV-I 0 W/m 2,0 C 2,4 C 11,3 km/h (2 Bft) 97,87 %
05.11.2016 20:54 2,5 C 97 % 1000,0 hPa 0,0 l/m 4,7 km/h (1 Bft) SW 233 0 min 0,000 mm 0,0 UV-I 0 W/m 2,1 C 2,5 C 8,0 km/h (2 Bft) 98,00 %
05.11.2016 20:56 2,5 C 97 % 1000,0 hPa 0,0 l/m 4,2 km/h (1 Bft) W-SW 248 0 min 0,000 mm 0,0 UV-I 0 W/m 2,1 C 2,5 C 6,4 km/h (2 Bft) 100,00 %
05.11.2016 20:58 2,6 C 97 % 1000,0 hPa 0,0 l/m 4,4 km/h (1 Bft) SW 217 0 min 0,000 mm 0,0 UV-I 0 W/m 2,2 C 2,6 C 6,4 km/h (2 Bft) 100,00 %
05.11.2016 21:00 2,6 C 97 % 1000,0 hPa 0,0 l/m 4,3 km/h (1 Bft) SW 217 0 min 0,000 mm 0,0 UV-I 0 W/m 2,2 C 2,6 C 6,4 km/h (2 Bft) 100,00 %
05.11.2016 21:02 2,6 C 97 % 999,9 hPa 0,0 l/m 4,8 km/h (1 Bft) S-SW 201 0 min 0,000 mm 0,0 UV-I 0 W/m 2,2 C 2,6 C 8,0 km/h (2 Bft) 100,00 %
05.11.2016 21:04 2,6 C 97 % 999,9 hPa 0,0 l/m 5,3 km/h (1 Bft) SW 220 0 min 0,000 mm 0,0 UV-I 0 W/m 2,2 C 2,6 C 8,0 km/h (2 Bft) 100,00 %
05.11.2016 21:06 2,6 C 97 % 1000,0 hPa 0,0 l/m 3,2 km/h (1 Bft) SW 219 0 min 0,000 mm 0,0 UV-I 0 W/m 2,2 C 2,6 C 6,4 km/h (2 Bft) 100,00 %
05.11.2016 21:08 2,6 C 97 % 999,9 hPa 0,0 l/m 4,2 km/h (1 Bft) W-SW 240 0 min 0,000 mm 0,0 UV-I 0 W/m 2,2 C 2,6 C 8,0 km/h (2 Bft) 98,00 %
05.11.2016 21:10 2,6 C 97 % 999,9 hPa 0,0 l/m 5,2 km/h (1 Bft) SW 234 0 min 0,000 mm 0,0 UV-I 0 W/m 2,2 C 2,6 C 8,0 km/h (2 Bft) 97,87 %
05.11.2016 21:12 2,6 C 97 % 999,9 hPa 0,0 l/m 6,4 km/h (2 Bft) W-SW 242 0 min 0,000 mm 0,0 UV-I 0 W/m 2,2 C 2,6 C 8,0 km/h (2 Bft) 100,00 %
05.11.2016 21:14 2,6 C 97 % 999,9 hPa 0,0 l/m 5,1 km/h (1 Bft) W-SW 240 0 min 0,000 mm 0,0 UV-I 0 W/m 2,2 C 2,6 C 8,0 km/h (2 Bft) 100,00 %
05.11.2016 21:16 2,6 C 97 % 1000,0 hPa 0,0 l/m 4,4 km/h (1 Bft) SW 236 0 min 0,000 mm 0,0 UV-I 0 W/m 2,2 C 2,6 C 6,4 km/h (2 Bft) 100,00 %
05.11.2016 21:18 2,6 C 97 % 1000,0 hPa 0,0 l/m 3,2 km/h (1 Bft) SW 236 0 min 0,000 mm 0,0 UV-I 0 W/m 2,2 C 2,6 C 4,8 km/h (1 Bft) 100,00 %
05.11.2016 21:20 2,6 C 97 % 1000,0 hPa 0,0 l/m 2,7 km/h (1 Bft) SW 236 0 min 0,000 mm 0,0 UV-I 0 W/m 2,2 C 2,6 C 4,8 km/h (1 Bft) 98,21 %
05.11.2016 21:22 2,6 C 97 % 999,9 hPa 0,0 l/m 1,2 km/h (1 Bft) SW 236 0 min 0,000 mm 0,0 UV-I 0 W/m 2,2 C 2,6 C 4,8 km/h (1 Bft) 96,00 %
05.11.2016 21:24 2,6 C 97 % 999,9 hPa 0,0 l/m 0,7 km/h (0 Bft) W-SW 242 0 min 0,000 mm 0,0 UV-I 0 W/m 2,2 C 2,6 C 4,8 km/h (1 Bft) 93,62 %
05.11.2016 21:26 2,6 C 97 % 999,7 hPa 0,0 l/m 1,5 km/h (1 Bft) W-SW 253 0 min 0,000 mm 0,0 UV-I 0 W/m 2,2 C 2,6 C 3,2 km/h (1 Bft) 100,00 %
05.11.2016 21:28 2,6 C 97 % 999,8 hPa 0,0 l/m 4,3 km/h (1 Bft) W-SW 255 0 min 0,000 mm 0,0 UV-I 0 W/m 2,2 C 2,6 C 8,0 km/h (2 Bft) 96,72 %
05.11.2016 21:30 2,6 C 97 % 1000,0 hPa 0,0 l/m 3,0 km/h (1 Bft) W-SW 256 0 min 0,000 mm 0,0 UV-I 0 W/m 2,2 C 2,6 C 4,8 km/h (1 Bft) 98,00 %
05.11.2016 21:32 2,6 C 97 % 1000,0 hPa 0,0 l/m 2,3 km/h (1 Bft) W-SW 255 0 min 0,000 mm 0,0 UV-I 0 W/m 2,2 C 2,6 C 4,8 km/h (1 Bft) 97,87 %
05.11.2016 21:34 2,6 C 97 % 999,9 hPa 0,0 l/m 2,2 km/h (1 Bft) W-SW 255 0 min 0,000 mm 0,0 UV-I 0 W/m 2,2 C 2,6 C 3,2 km/h (1 Bft) 97,62 %
05.11.2016 21:36 2,5 C 97 % 999,9 hPa 0,0 l/m 1,4 km/h (1 Bft) W-SW 255 0 min 0,000 mm 0,0 UV-I 0 W/m 2,1 C 2,5 C 3,2 km/h (1 Bft) 98,00 %
05.11.2016 21:38 2,6 C 97 % 999,9 hPa 0,0 l/m 0,8 km/h (0 Bft) W-SW 255 0 min 0,000 mm 0,0 UV-I 0 W/m 2,2 C 2,6 C 3,2 km/h (1 Bft) 97,87 %
05.11.2016 21:40 2,6 C 97 % 1000,0 hPa 0,0 l/m 1,5 km/h (1 Bft) W-SW 255 0 min 0,000 mm 0,0 UV-I 0 W/m 2,2 C 2,6 C 3,2 km/h (1 Bft) 96,23 %
05.11.2016 21:42 2,6 C 97 % 1000,1 hPa 0,0 l/m 3,2 km/h (1 Bft) W 267 0 min 0,000 mm 0,0 UV-I 0 W/m 2,2 C 2,6 C 6,4 km/h (2 Bft) 95,74 %
05.11.2016 21:44 2,6 C 97 % 1000,0 hPa 0,0 l/m 1,7 km/h (1 Bft) S-SW 196 0 min 0,000 mm 0,0 UV-I 0 W/m 2,2 C 2,6 C 4,8 km/h (1 Bft) 100,00 %
05.11.2016 21:46 2,5 C 97 % 1000,1 hPa 0,0 l/m 2,2 km/h (1 Bft) W-SW 240 0 min 0,000 mm 0,0 UV-I 0 W/m 2,1 C 2,5 C 4,8 km/h (1 Bft) 96,00 %
05.11.2016 21:48 2,5 C 97 % 1000,0 hPa 0,0 l/m 0,9 km/h (0 Bft) W-SW 240 0 min 0,000 mm 0,0 UV-I 0 W/m 2,1 C 2,5 C 4,8 km/h (1 Bft) 96,23 %
05.11.2016 21:50 2,5 C 97 % 1000,0 hPa 0,0 l/m 1,8 km/h (1 Bft) W-SW 248 0 min 0,000 mm 0,0 UV-I 0 W/m 2,1 C 2,5 C 4,8 km/h (1 Bft) 97,87 %
05.11.2016 21:52 2,5 C 97 % 1000,0 hPa 0,0 l/m 2,0 km/h (1 Bft) W-SW 248 0 min 0,000 mm 0,0 UV-I 0 W/m 2,1 C 2,5 C 3,2 km/h (1 Bft) 94,74 %
05.11.2016 21:54 2,5 C 97 % 1000,1 hPa 0,0 l/m 0,8 km/h (0 Bft) W-SW 248 0 min 0,000 mm 0,0 UV-I 0 W/m 2,1 C 2,5 C 1,6 km/h (1 Bft) 97,87 %
05.11.2016 21:56 2,4 C 97 % 1000,1 hPa 0,0 l/m 2,0 km/h (1 Bft) W-SW 248 0 min 0,000 mm 0,0 UV-I 0 W/m 2,0 C 2,4 C 3,2 km/h (1 Bft) 98,00 %
05.11.2016 21:58 2,4 C 97 % 1000,0 hPa 0,0 l/m 1,7 km/h (1 Bft) W-SW 248 0 min 0,000 mm 0,0 UV-I 0 W/m 2,0 C 2,4 C 3,2 km/h (1 Bft) 100,00 %
05.11.2016 22:00 2,4 C 98 % 1000,0 hPa 0,0 l/m 1,8 km/h (1 Bft) W-SW 248 0 min 0,000 mm 0,0 UV-I 0 W/m 2,1 C 2,4 C 3,2 km/h (1 Bft) 100,00 %
05.11.2016 22:02 2,4 C 97 % 1000,0 hPa 0,0 l/m 1,7 km/h (1 Bft) W-SW 248 0 min 0,000 mm 0,0 UV-I 0 W/m 2,0 C 2,4 C 3,2 km/h (1 Bft) 97,73 %
05.11.2016 22:04 2,4 C 97 % 1000,0 hPa 0,0 l/m 2,0 km/h (1 Bft) W-SW 248 0 min 0,000 mm 0,0 UV-I 0 W/m 2,0 C 2,4 C 3,2 km/h (1 Bft) 100,00 %
05.11.2016 22:06 2,3 C 97 % 999,9 hPa 0,0 l/m 0,8 km/h (0 Bft) W-SW 248 0 min 0,000 mm 0,0 UV-I 0 W/m 1,9 C 2,3 C 1,6 km/h (1 Bft) 100,00 %
05.11.2016 22:08 2,3 C 97 % 999,8 hPa 0,0 l/m 0,5 km/h (0 Bft) W-SW 248 0 min 0,000 mm 0,0 UV-I 0 W/m 1,9 C 2,3 C 1,6 km/h (1 Bft) 100,00 %
05.11.2016 22:10 2,3 C 97 % 999,9 hPa 0,0 l/m 1,5 km/h (1 Bft) W-SW 248 0 min 0,000 mm 0,0 UV-I 0 W/m 1,9 C 2,3 C 3,2 km/h (1 Bft) 100,00 %
05.11.2016 22:12 2,2 C 97 % 999,9 hPa 0,0 l/m 1,6 km/h (1 Bft) W-SW 248 0 min 0,000 mm 0,0 UV-I 0 W/m 1,8 C 2,2 C 3,2 km/h (1 Bft) 97,87 %
05.11.2016 22:14 2,3 C 97 % 999,9 hPa 0,0 l/m 2,0 km/h (1 Bft) W-SW 248 0 min 0,000 mm 0,0 UV-I 0 W/m 1,9 C 2,3 C 3,2 km/h (1 Bft) 100,00 %
05.11.2016 22:16 2,3 C 97 % 999,9 hPa 0,0 l/m 1,1 km/h (1 Bft) W-SW 248 0 min 0,000 mm 0,0 UV-I 0 W/m 1,9 C 2,3 C 3,2 km/h (1 Bft) 100,00 %
05.11.2016 22:18 2,3 C 97 % 1000,0 hPa 0,0 l/m 0,0 km/h (0 Bft) W-SW 248 0 min 0,000 mm 0,0 UV-I 0 W/m 1,9 C 2,3 C 0,0 km/h (0 Bft) 100,00 %
05.11.2016 22:20 2,3 C 98 % 1000,0 hPa 0,0 l/m 0,0 km/h (0 Bft) W-SW 248 0 min 0,000 mm 0,0 UV-I 0 W/m 2,0 C 2,3 C 0,0 km/h (0 Bft) 98,00 %
05.11.2016 22:22 2,3 C 97 % 1000,1 hPa 0,0 l/m 0,0 km/h (0 Bft) W-SW 248 0 min 0,000 mm 0,0 UV-I 0 W/m 1,9 C 2,3 C 0,0 km/h (0 Bft) 100,00 %
05.11.2016 22:24 2,3 C 97 % 1000,1 hPa 0,0 l/m 0,0 km/h (0 Bft) W-SW 248 0 min 0,000 mm 0,0 UV-I 0 W/m 1,9 C 2,3 C 0,0 km/h (0 Bft) 100,00 %
05.11.2016 22:26 2,3 C 98 % 1000,2 hPa 0,0 l/m 0,0 km/h (0 Bft) W-SW 248 0 min 0,000 mm 0,0 UV-I 0 W/m 2,0 C 2,3 C 0,0 km/h (0 Bft) 97,87 %
05.11.2016 22:28 2,3 C 98 % 1000,3 hPa 0,0 l/m 0,5 km/h (0 Bft) W-SW 248 0 min 0,000 mm 0,0 UV-I 0 W/m 2,0 C 2,3 C 1,6 km/h (1 Bft) 98,00 %
05.11.2016 22:30 2,2 C 98 % 1000,3 hPa 0,0 l/m 1,0 km/h (0 Bft) W-SW 248 0 min 0,000 mm 0,0 UV-I 0 W/m 1,9 C 2,2 C 3,2 km/h (1 Bft) 98,00 %
05.11.2016 22:32 2,2 C 98 % 1000,3 hPa 0,0 l/m 0,6 km/h (0 Bft) W-SW 248 0 min 0,000 mm 0,0 UV-I 0 W/m 1,9 C 2,2 C 3,2 km/h (1 Bft) 97,87 %
05.11.2016 22:34 2,2 C 98 % 1000,3 hPa 0,0 l/m 1,1 km/h (1 Bft) W-SW 248 0 min 0,000 mm 0,0 UV-I 0 W/m 1,9 C 2,2 C 4,8 km/h (1 Bft) 100,00 %
05.11.2016 22:36 2,2 C 98 % 1000,3 hPa 0,0 l/m 1,0 km/h (0 Bft) W-SW 248 0 min 0,000 mm 0,0 UV-I 0 W/m 1,9 C 2,2 C 3,2 km/h (1 Bft) 100,00 %
05.11.2016 22:38 2,1 C 98 % 1000,3 hPa 0,0 l/m 1,4 km/h (1 Bft) W-SW 240 0 min 0,000 mm 0,0 UV-I 0 W/m 1,8 C 2,1 C 3,2 km/h (1 Bft) 98,00 %
05.11.2016 22:40 2,1 C 97 % 1000,2 hPa 0,0 l/m 1,5 km/h (1 Bft) W-SW 240 0 min 0,000 mm 0,0 UV-I 0 W/m 1,7 C 2,1 C 3,2 km/h (1 Bft) 100,00 %
05.11.2016 22:42 2,0 C 97 % 1000,1 hPa 0,0 l/m 0,0 km/h (0 Bft) W-SW 240 0 min 0,000 mm 0,0 UV-I 0 W/m 1,6 C 2,0 C 0,0 km/h (0 Bft) 97,37 %
05.11.2016 22:44 2,1 C 97 % 1000,1 hPa 0,0 l/m 0,9 km/h (0 Bft) W-SW 240 0 min 0,000 mm 0,0 UV-I 0 W/m 1,7 C 2,1 C 3,2 km/h (1 Bft) 100,00 %
05.11.2016 22:46 2,1 C 98 % 1000,1 hPa 0,0 l/m 0,9 km/h (0 Bft) W-SW 240 0 min 0,000 mm 0,0 UV-I 0 W/m 1,8 C 2,1 C 3,2 km/h (1 Bft) 98,11 %
05.11.2016 22:48 2,2 C 98 % 1000,2 hPa 0,0 l/m 0,1 km/h (0 Bft) W-SW 240 0 min 0,000 mm 0,0 UV-I 0 W/m 1,9 C 2,2 C 1,6 km/h (1 Bft) 100,00 %
05.11.2016 22:50 2,2 C 98 % 1000,2 hPa 0,0 l/m 0,0 km/h (0 Bft) W-SW 240 0 min 0,000 mm 0,0 UV-I 0 W/m 1,9 C 2,2 C 0,0 km/h (0 Bft) 100,00 %
05.11.2016 22:52 2,3 C 98 % 1000,2 hPa 0,0 l/m 0,0 km/h (0 Bft) W-SW 240 0 min 0,000 mm 0,0 UV-I 0 W/m 2,0 C 2,3 C 0,0 km/h (0 Bft) 100,00 %
05.11.2016 22:54 2,3 C 98 % 1000,2 hPa 0,0 l/m 1,0 km/h (0 Bft) W-SW 240 0 min 0,000 mm 0,0 UV-I 0 W/m 2,0 C 2,3 C 1,6 km/h (1 Bft) 100,00 %
05.11.2016 22:56 2,3 C 98 % 1000,2 hPa 0,0 l/m 0,4 km/h (0 Bft) W-SW 240 0 min 0,000 mm 0,0 UV-I 0 W/m 2,0 C 2,3 C 1,6 km/h (1 Bft) 95,74 %
05.11.2016 22:58 2,3 C 98 % 1000,2 hPa 0,0 l/m 1,5 km/h (1 Bft) W-SW 240 0 min 0,000 mm 0,0 UV-I 0 W/m 2,0 C 2,3 C 3,2 km/h (1 Bft) 100,00 %
05.11.2016 23:00 2,3 C 98 % 1000,2 hPa 0,0 l/m 1,3 km/h (1 Bft) W-SW 240 0 min 0,000 mm 0,0 UV-I 0 W/m 2,0 C 2,3 C 3,2 km/h (1 Bft) 100,00 %
05.11.2016 23:02 2,3 C 98 % 1000,3 hPa 0,0 l/m 1,3 km/h (1 Bft) W-SW 240 0 min 0,000 mm 0,0 UV-I 0 W/m 2,0 C 2,3 C 3,2 km/h (1 Bft) 95,74 %
05.11.2016 23:04 2,3 C 98 % 1000,3 hPa 0,0 l/m 0,2 km/h (0 Bft) W-SW 240 0 min 0,000 mm 0,0 UV-I 0 W/m 2,0 C 2,3 C 1,6 km/h (1 Bft) 100,00 %
05.11.2016 23:06 2,2 C 98 % 1000,3 hPa 0,0 l/m 0,0 km/h (0 Bft) W-SW 240 0 min 0,000 mm 0,0 UV-I 0 W/m 1,9 C 2,2 C 0,0 km/h (0 Bft) 97,87 %
05.11.2016 23:08 2,2 C 98 % 1000,3 hPa 0,0 l/m 0,0 km/h (0 Bft) W-SW 240 0 min 0,000 mm 0,0 UV-I 0 W/m 1,9 C 2,2 C 0,0 km/h (0 Bft) 98,00 %
05.11.2016 23:10 2,3 C 98 % 1000,3 hPa 0,0 l/m 1,1 km/h (1 Bft) W-SW 240 0 min 0,000 mm 0,0 UV-I 0 W/m 2,0 C 2,3 C 3,2 km/h (1 Bft) 100,00 %
05.11.2016 23:12 2,3 C 98 % 1000,3 hPa 0,0 l/m 3,2 km/h (1 Bft) S 171 0 min 0,000 mm 0,0 UV-I 0 W/m 2,0 C 2,3 C 4,8 km/h (1 Bft) 100,00 %
05.11.2016 23:14 2,3 C 98 % 1000,4 hPa 0,0 l/m 1,9 km/h (1 Bft) S 171 0 min 0,000 mm 0,0 UV-I 0 W/m 2,0 C 2,3 C 6,4 km/h (2 Bft) 98,00 %
05.11.2016 23:16 2,3 C 98 % 1000,4 hPa 0,0 l/m 0,6 km/h (0 Bft) S 171 0 min 0,000 mm 0,0 UV-I 0 W/m 2,0 C 2,3 C 1,6 km/h (1 Bft) 100,00 %
05.11.2016 23:19 2,4 C 98 % 1000,4 hPa 0,0 l/m 0,0 km/h (0 Bft) S 171 0 min 0,000 mm 0,0 UV-I 0 W/m 2,1 C 2,4 C 0,0 km/h (0 Bft) 100,00 %
05.11.2016 23:20 2,4 C 98 % 1000,4 hPa 0,0 l/m 0,0 km/h (0 Bft) S 171 0 min 0,000 mm 0,0 UV-I 0 W/m 2,1 C 2,4 C 0,0 km/h (0 Bft) 91,30 %
05.11.2016 23:22 2,4 C 98 % 1000,4 hPa 0,0 l/m 0,3 km/h (0 Bft) S 171 0 min 0,000 mm 0,0 UV-I 0 W/m 2,1 C 2,4 C 1,6 km/h (1 Bft) 100,00 %
05.11.2016 23:24 2,5 C 98 % 1000,5 hPa 0,0 l/m 1,2 km/h (1 Bft) S 171 0 min 0,000 mm 0,0 UV-I 0 W/m 2,2 C 2,5 C 3,2 km/h (1 Bft) 100,00 %
05.11.2016 23:26 2,5 C 98 % 1000,5 hPa 0,0 l/m 0,2 km/h (0 Bft) S 171 0 min 0,000 mm 0,0 UV-I 0 W/m 2,2 C 2,5 C 1,6 km/h (1 Bft) 93,62 %
05.11.2016 23:28 2,5 C 98 % 1000,6 hPa 0,0 l/m 0,3 km/h (0 Bft) S 171 0 min 0,000 mm 0,0 UV-I 0 W/m 2,2 C 2,5 C 1,6 km/h (1 Bft) 93,62 %
05.11.2016 23:30 2,5 C 98 % 1000,5 hPa 0,0 l/m 0,1 km/h (0 Bft) S 171 0 min 0,000 mm 0,0 UV-I 0 W/m 2,2 C 2,5 C 1,6 km/h (1 Bft) 98,11 %
05.11.2016 23:32 2,5 C 98 % 1000,5 hPa 0,0 l/m 0,0 km/h (0 Bft) S 171 0 min 0,000 mm 0,0 UV-I 0 W/m 2,2 C 2,5 C 0,0 km/h (0 Bft) 97,44 %
05.11.2016 23:34 2,6 C 98 % 1000,4 hPa 0,0 l/m 1,2 km/h (1 Bft) S 171 0 min 0,000 mm 0,0 UV-I 0 W/m 2,3 C 2,6 C 3,2 km/h (1 Bft) 98,00 %
05.11.2016 23:36 2,6 C 98 % 1000,5 hPa 0,0 l/m 1,0 km/h (0 Bft) S 171 0 min 0,000 mm 0,0 UV-I 0 W/m 2,3 C 2,6 C 3,2 km/h (1 Bft) 97,37 %
05.11.2016 23:38 2,6 C 98 % 1000,6 hPa 0,0 l/m 2,0 km/h (1 Bft) S 171 0 min 0,000 mm 0,0 UV-I 0 W/m 2,3 C 2,6 C 3,2 km/h (1 Bft) 97,37 %
05.11.2016 23:40 2,6 C 98 % 1000,6 hPa 0,0 l/m 2,7 km/h (1 Bft) S 178 0 min 0,000 mm 0,0 UV-I 0 W/m 2,3 C 2,6 C 4,8 km/h (1 Bft) 98,39 %
05.11.2016 23:43 2,7 C 98 % 1000,6 hPa 0,0 l/m 2,1 km/h (1 Bft) S 178 0 min 0,000 mm 0,0 UV-I 0 W/m 2,4 C 2,7 C 4,8 km/h (1 Bft) 96,05 %
05.11.2016 23:44 2,7 C 98 % 1000,6 hPa 0,0 l/m 1,1 km/h (1 Bft) S 178 0 min 0,000 mm 0,0 UV-I 0 W/m 2,4 C 2,7 C 3,2 km/h (1 Bft) 91,67 %
05.11.2016 23:46 2,7 C 98 % 1000,7 hPa 0,0 l/m 0,5 km/h (0 Bft) S 178 0 min 0,000 mm 0,0 UV-I 0 W/m 2,4 C 2,7 C 1,6 km/h (1 Bft) 97,87 %
05.11.2016 23:48 2,7 C 98 % 1000,7 hPa 0,0 l/m 0,0 km/h (0 Bft) S 178 0 min 0,000 mm 0,0 UV-I 0 W/m 2,4 C 2,7 C 1,6 km/h (1 Bft) 97,56 %
05.11.2016 23:50 2,8 C 98 % 1000,7 hPa 0,0 l/m 1,1 km/h (1 Bft) S 178 0 min 0,000 mm 0,0 UV-I 0 W/m 2,5 C 2,8 C 1,6 km/h (1 Bft) 96,00 %
05.11.2016 23:52 2,8 C 98 % 1000,7 hPa 0,0 l/m 0,3 km/h (0 Bft) S 178 0 min 0,000 mm 0,0 UV-I 0 W/m 2,5 C 2,8 C 1,6 km/h (1 Bft) 97,87 %
05.11.2016 23:54 2,8 C 98 % 1000,6 hPa 0,0 l/m 1,1 km/h (1 Bft) S 178 0 min 0,000 mm 0,0 UV-I 0 W/m 2,5 C 2,8 C 3,2 km/h (1 Bft) 97,87 %
05.11.2016 23:56 2,8 C 98 % 1000,6 hPa 0,0 l/m 1,3 km/h (1 Bft) S 178 0 min 0,000 mm 0,0 UV-I 0 W/m 2,5 C 2,8 C 3,2 km/h (1 Bft) 98,00 %
05.11.2016 23:58 2,8 C 98 % 1000,6 hPa 0,0 l/m 0,5 km/h (0 Bft) S 178 0 min 0,000 mm 0,0 UV-I 0 W/m 2,5 C 2,8 C 1,6 km/h (1 Bft) 92,11 %
_ Min-Zeit 04:36 15:58 19:44 - 18:36 - - - - - - 04:36 10:24 18:36 23:20
Minimum _ 1,0 C 94 % 999,4 hPa - 0,0 km/h (0 Bft) - - - - - - 0,7 C -5,8 C 0,0 km/h (0 Bft) 91,30 %
_ Max-Zeit 14:06 02:48 00:00 00:00 11:24 - - 00:00 14:02 13:00 13:22 13:48 16:14 11:24 00:00
Maximum _ 3,7 C 99 % 1013,8 hPa 0,0 l/m 17,6 km/h
O-NO (3 Bft)
- - 0 min 0,051 mm 0,5 UV-I 152 W/m 3,5 C 3,4 C 22,5 km/h
O-NO (4 Bft)
100,00 %
Durchschnitt _ 2,1 C 98 % 1005,9 hPa #0,0 l/m 6,7 km/h (2 Bft) O-NO - #0 min. #0,254 mm 0,3 UV-I 67 W/m 1,7 C 0,5 C 10,3 km/h (2 Bft) 98,53 %